FW6030 Weather Reports


time (UTC)temp
C
wind
direction
speed
KPH
gust
KPH
rain 1hr
cm
rain 24hr
cm
rain mn
cm
humidity
%
barometer
mb
20260510095219 21 360 8.0 24.1 0.00 0.00 0.00 87 1011.8
20260510095120 21 360 9.7 19.3 0.00 0.00 0.00 87 1011.8
20260510095041 21 360 8.0 24.1 0.00 0.00 0.00 87 1011.9
20260510094921 21 360 8.0 24.1 0.00 0.00 0.00 87 1011.8
20260510094822 21 360 8.0 24.1 0.00 0.00 0.00 86 1011.8
20260510094722 21 360 8.0 24.1 0.00 0.00 0.00 87 1011.9
20260510094642 21 360 9.7 25.7 0.00 0.00 0.00 87 1011.8
20260510094521 21 360 9.7 25.7 0.00 0.00 0.00 87 1011.9
20260510094426 21 360 11.3 25.7 0.00 0.00 0.00 86 1011.8
20260510094326 21 360 9.7 25.7 0.00 0.00 0.00 86 1011.9
20260510094227 21 360 8.0 25.7 0.00 0.00 0.00 86 1011.9
20260510094147 21 360 8.0 25.7 0.00 0.00 0.00 86 1011.9
20260510094047 21 360 9.7 25.7 0.00 0.00 0.00 86 1011.9
20260510093927 21 360 9.7 25.7 0.00 0.00 0.00 86 1012.0
20260510093827 21 360 9.7 24.1 0.00 0.00 0.00 86 1012.0
20260510093731 21 360 11.3 24.1 0.00 0.00 0.00 86 1011.9
20260510093632 21 360 9.7 24.1 0.00 0.00 0.00 86 1012.0
20260510093533 21 360 11.3 24.1 0.00 0.00 0.00 86 1012.0
20260510093432 21 360 12.9 24.1 0.00 0.00 0.00 86 1011.9
20260510093333 21 360 12.9 24.1 0.00 0.00 0.00 86 1011.9
20260510093234 21 360 12.9 24.1 0.00 0.00 0.00 86 1011.8
20260510093119 21 360 11.3 24.1 0.00 0.00 0.00 86 1011.8
20260510093018 21 360 8.0 24.1 0.00 0.00 0.00 86 1011.9
20260510092919 21 360 8.0 24.1 0.00 0.00 0.00 86 1011.8
20260510092842 21 360 8.0 24.1 0.00 0.00 0.00 86 1011.8
20260510092721 21 360 9.7 24.1 0.00 0.00 0.00 86 1011.8
20260510092622 21 360 9.7 24.1 0.00 0.00 0.00 86 1011.7
20260510092522 21 360 11.3 24.1 0.00 0.00 0.00 86 1011.8
20260510092428 21 360 9.7 24.1 0.00 0.00 0.00 86 1011.8
20260510092327 21 360 9.7 24.1 0.00 0.00 0.00 86 1011.9
20260510092228 21 360 8.0 24.1 0.00 0.00 0.00 86 1011.9
20260510092129 21 360 8.0 24.1 0.00 0.00 0.00 86 1011.9
20260510092029 21 360 9.7 24.1 0.00 0.00 0.00 86 1011.9
20260510091930 21 360 9.7 24.1 0.00 0.00 0.00 85 1011.9
20260510091830 21 360 9.7 24.1 0.00 0.00 0.00 85 1011.9
20260510091751 21 360 9.7 24.1 0.00 0.00 0.00 86 1012.0
20260510091633 21 360 9.7 24.1 0.00 0.00 0.00 86 1011.9
20260510091534 21 360 9.7 24.1 0.00 0.00 0.00 86 1011.9
20260510091434 21 360 11.3 24.1 0.00 0.00 0.00 86 1011.9
20260510091335 21 360 11.3 24.1 0.00 0.00 0.00 85 1011.9
20260510091235 21 360 12.9 24.1 0.00 0.00 0.00 85 1011.9
20260510091155 21 360 12.9 24.1 0.00 0.00 0.00 85 1012.0
20260510091019 21 360 11.3 19.3 0.00 0.00 0.00 85 1011.9
20260510090920 21 360 9.7 16.1 0.00 0.00 0.00 85 1011.9
20260510090820 21 360 8.0 17.7 0.00 0.00 0.00 85 1011.9
20260510090722 21 360 8.0 17.7 0.00 0.00 0.00 85 1011.8
20260510090624 21 360 6.4 17.7 0.00 0.00 0.00 85 1012.0
20260510090524 21 360 4.8 17.7 0.00 0.00 0.00 85 1011.9
20260510090445 21 360 6.4 17.7 0.00 0.00 0.00 85 1011.9
20260510090328 21 360 6.4 17.7 0.00 0.00 0.00 85 1011.9
20260510090228 21 360 6.4 17.7 0.00 0.00 0.00 85 1011.9
20260510090129 21 360 8.0 17.7 0.00 0.00 0.00 85 1011.9
20260510090031 21 360 8.0 17.7 0.00 0.00 0.00 85 1011.8
20260510085932 21 360 8.0 17.7 0.00 0.00 0.00 85 1011.8
20260510085833 21 360 8.0 17.7 0.00 0.00 0.00 85 1011.8
20260510085717 21 360 4.8 12.9 0.00 0.03 0.00 85 1011.8
20260510085617 21 360 4.8 12.9 0.00 0.03 0.00 85 1011.9
20260510085518 21 360 4.8 12.9 0.00 0.03 0.00 85 1011.9
20260510085418 21 360 4.8 12.9 0.00 0.03 0.00 85 1012.0
20260510085339 21 360 4.8 12.9 0.00 0.03 0.00 85 1011.9
20260510085238 21 360 6.4 16.1 0.00 0.03 0.00 85 1011.9
20260510085138 21 360 4.8 16.1 0.00 0.03 0.00 85 1011.9
20260510085017 21 360 4.8 16.1 0.00 0.03 0.00 84 1011.9
20260510084922 21 360 4.8 16.1 0.00 0.03 0.00 84 1011.9
20260510084842 21 360 3.2 16.1 0.00 0.03 0.00 84 1011.9
20260510084743 21 360 3.2 16.1 0.00 0.03 0.00 84 1011.9
20260510084616 21 360 3.2 16.1 0.00 0.03 0.00 84 1011.9
20260510084517 21 360 4.8 16.1 0.00 0.03 0.00 84 1011.9
20260510084437 21 360 4.8 16.1 0.00 0.03 0.00 84 1011.9
20260510084337 21 360 6.4 16.1 0.00 0.03 0.00 84 1011.9
20260510084237 21 360 6.4 16.1 0.00 0.03 0.00 84 1011.9
20260510084116 21 360 6.4 16.1 0.00 0.03 0.00 84 1011.9
20260510084021 21 360 6.4 14.5 0.00 0.03 0.00 84 1012.0
20260510083920 21 360 6.4 14.5 0.00 0.03 0.00 84 1011.9
20260510083820 21 360 6.4 14.5 0.00 0.03 0.00 84 1012.0
20260510083722 21 360 6.4 14.5 0.00 0.03 0.00 84 1012.0
20260510083622 22 360 4.8 14.5 0.00 0.03 0.00 84 1011.9
20260510083543 22 360 6.4 14.5 0.00 0.03 0.00 84 1011.9
20260510083416 22 360 6.4 14.5 0.00 0.03 0.00 84 1012.0
20260510083321 22 360 6.4 14.5 0.00 0.03 0.00 84 1012.0
20260510083220 22 360 4.8 14.5 0.00 0.03 0.00 84 1012.0
20260510083120 22 360 4.8 14.5 0.00 0.03 0.00 84 1012.0
20260510083021 22 360 6.4 14.5 0.00 0.03 0.00 84 1012.1
20260510082922 22 360 6.4 14.5 0.00 0.03 0.00 84 1012.0
20260510082840 22 360 9.7 14.5 0.00 0.03 0.00 84 1012.1
20260510082718 22 360 8.0 12.9 0.00 0.03 0.00 83 1012.0
20260510082643 22 360 8.0 12.9 0.00 0.03 0.00 83 1012.1
20260510082522 22 360 8.0 17.7 0.00 0.03 0.00 83 1012.0
20260510082423 22 360 6.4 17.7 0.00 0.03 0.00 83 1012.1
20260510082323 22 360 6.4 17.7 0.00 0.03 0.00 83 1012.0
20260510082225 22 360 4.8 17.7 0.00 0.03 0.00 83 1012.0
20260510082125 22 360 4.8 17.7 0.00 0.03 0.00 83 1012.1
20260510082025 22 360 4.8 17.7 0.00 0.03 0.00 83 1012.1
20260510081930 22 360 4.8 17.7 0.00 0.03 0.00 83 1012.1
20260510081830 22 360 6.4 17.7 0.00 0.03 0.00 83 1012.1
20260510081731 22 360 8.0 17.7 0.00 0.03 0.00 83 1012.1
20260510081630 22 360 8.0 17.7 0.00 0.03 0.00 83 1012.2
20260510081531 22 360 9.7 17.7 0.00 0.03 0.00 83 1012.2
20260510081431 22 360 9.7 17.7 0.00 0.03 0.00 83 1012.2
20260510081331 22 360 8.0 17.7 0.00 0.03 0.00 83 1012.1
20260510081216 22 360 6.4 17.7 0.00 0.03 0.00 83 1012.1
20260510081116 22 360 6.4 17.7 0.00 0.03 0.00 83 1012.1
20260510081017 22 360 8.0 17.7 0.00 0.03 0.00 83 1012.1
20260510080917 22 360 8.0 17.7 0.00 0.03 0.00 83 1012.3
20260510080818 22 360 8.0 17.7 0.00 0.03 0.00 83 1012.1
20260510080718 22 360 6.4 17.7 0.00 0.03 0.00 83 1012.2
20260510080623 22 360 4.8 17.7 0.00 0.03 0.00 83 1012.1
20260510080523 22 360 4.8 17.7 0.00 0.03 0.00 83 1012.1
20260510080424 22 360 4.8 17.7 0.00 0.03 0.00 83 1012.1
20260510080325 22 360 6.4 17.7 0.00 0.03 0.00 83 1012.1
20260510080224 22 360 6.4 16.1 0.00 0.03 0.00 83 1012.1
20260510080125 22 360 6.4 16.1 0.00 0.03 0.00 83 1012.1
20260510080030 22 360 4.8 17.7 0.00 0.03 0.00 83 1012.1
20260510075931 22 360 4.8 17.7 0.00 0.03 0.00 83 1012.2
20260510075851 22 360 6.4 17.7 0.00 0.03 0.00 83 1012.1
20260510075732 22 360 6.4 17.7 0.00 0.03 0.00 83 1012.0
20260510075632 22 360 6.4 19.3 0.00 0.03 0.00 83 1012.1
20260510075553 22 360 6.4 19.3 0.00 0.03 0.00 83 1012.1
20260510075432 22 360 6.4 19.3 0.00 0.03 0.00 83 1012.1
20260510075316 22 360 6.4 19.3 0.00 0.03 0.00 83 1012.2
20260510075217 22 360 8.0 19.3 0.00 0.03 0.00 83 1012.2
20260510075118 22 360 6.4 19.3 0.00 0.03 0.00 83 1012.1
20260510075018 22 360 8.0 19.3 0.00 0.03 0.00 82 1012.1
20260510074919 22 360 8.0 19.3 0.00 0.03 0.00 83 1012.2
20260510074820 22 360 8.0 19.3 0.00 0.03 0.00 83 1012.3
20260510074721 22 360 9.7 19.3 0.00 0.03 0.00 83 1012.2
20260510074625 22 360 9.7 19.3 0.00 0.03 0.00 83 1012.1
20260510074525 22 360 8.0 19.3 0.00 0.03 0.00 82 1012.1
20260510074446 22 360 9.7 19.3 0.00 0.03 0.00 82 1012.1
20260510074324 22 360 9.7 19.3 0.00 0.03 0.00 82 1012.1
20260510074225 22 360 8.0 19.3 0.00 0.03 0.00 82 1012.1
20260510074127 22 360 8.0 19.3 0.00 0.03 0.00 82 1012.1
20260510074047 22 360 9.7 19.3 0.00 0.03 0.00 82 1012.1
20260510073931 22 360 9.7 19.3 0.00 0.03 0.00 82 1012.1
20260510073831 22 360 9.7 19.3 0.00 0.03 0.00 82 1012.1
20260510073732 22 360 9.7 19.3 0.00 0.03 0.00 82 1012.1
20260510073632 22 360 9.7 17.7 0.00 0.03 0.00 82 1012.1
20260510073532 22 360 9.7 20.9 0.00 0.03 0.00 82 1012.1
20260510073453 22 360 9.7 20.9 0.00 0.03 0.00 82 1012.1
20260510073332 22 360 9.7 24.1 0.00 0.03 0.00 82 1012.1
20260510073232 22 360 11.3 24.1 0.00 0.03 0.00 82 1012.2
20260510073117 22 360 11.3 24.1 0.00 0.03 0.00 82 1012.2
20260510073037 22 360 12.9 24.1 0.00 0.03 0.00 82 1012.3
20260510072937 22 360 14.5 24.1 0.00 0.03 0.00 82 1012.2
20260510072818 22 360 12.9 24.1 0.00 0.03 0.00 82 1012.2
20260510072737 22 360 14.5 24.1 0.00 0.03 0.00 82 1012.2
20260510072617 22 360 14.5 24.1 0.00 0.03 0.00 82 1012.3
20260510072538 22 360 12.9 20.9 0.00 0.03 0.00 82 1012.3
20260510072418 22 360 12.9 19.3 0.00 0.03 0.00 82 1012.2
20260510072323 22 360 12.9 19.3 0.00 0.03 0.00 82 1012.3
20260510072225 22 360 12.9 19.3 0.00 0.03 0.00 81 1012.3
20260510072125 22 360 11.3 19.3 0.00 0.03 0.00 81 1012.3
20260510072047 22 360 11.3 19.3 0.00 0.03 0.00 81 1012.4
20260510071946 22 360 9.7 19.3 0.00 0.03 0.00 81 1012.4
20260510071826 22 360 9.7 19.3 0.00 0.03 0.00 81 1012.4
20260510071726 22 360 9.7 19.3 0.00 0.03 0.00 81 1012.4
20260510071627 22 360 9.7 19.3 0.00 0.03 0.00 81 1012.3
20260510071552 22 360 11.3 19.3 0.00 0.03 0.00 81 1012.4
20260510071451 22 360 11.3 19.3 0.00 0.03 0.00 81 1012.4
20260510071330 22 360 11.3 19.3 0.00 0.03 0.00 81 1012.3
20260510071231 22 360 12.9 19.3 0.00 0.03 0.00 81 1012.4
20260510071134 22 360 12.9 19.3 0.00 0.03 0.00 81 1012.3
20260510071034 22 360 12.9 19.3 0.00 0.03 0.00 81 1012.4
20260510070934 22 360 12.9 19.3 0.00 0.03 0.00 81 1012.3
20260510070819 22 360 11.3 17.7 0.00 0.03 0.00 81 1012.3
20260510070720 22 360 9.7 17.7 0.00 0.03 0.00 81 1012.3
20260510070621 22 360 9.7 16.1 0.00 0.03 0.00 80 1012.3
20260510070521 22 360 9.7 14.5 0.00 0.03 0.00 80 1012.3
20260510070442 22 360 8.0 14.5 0.00 0.03 0.00 80 1012.3
20260510070316 22 360 9.7 14.5 0.00 0.03 0.00 80 1012.2
20260510070238 22 360 9.7 14.5 0.00 0.03 0.00 80 1012.3
20260510070121 22 360 9.7 14.5 0.00 0.03 0.00 80 1012.3
20260510070023 22 360 9.7 14.5 0.00 0.03 0.00 80 1012.3
20260510065942 22 360 8.0 19.3 0.00 0.03 0.00 80 1012.2
20260510065824 22 360 8.0 19.3 0.00 0.03 0.00 80 1012.2
20260510065723 22 360 8.0 19.3 0.00 0.03 0.00 80 1012.2
20260510065623 22 360 8.0 19.3 0.00 0.03 0.00 80 1012.1
20260510065545 22 360 8.0 19.3 0.00 0.03 0.00 80 1012.1
20260510065429 22 360 8.0 19.3 0.00 0.03 0.00 80 1012.1
20260510065331 22 360 8.0 19.3 0.00 0.03 0.00 80 1012.2
20260510065230 22 360 8.0 22.5 0.00 0.03 0.00 80 1012.1
20260510065131 22 360 9.7 22.5 0.00 0.03 0.00 80 1012.2
20260510065032 22 360 9.7 22.5 0.00 0.03 0.00 80 1012.1
20260510064933 22 360 9.7 22.5 0.00 0.03 0.00 80 1012.1
20260510064854 22 360 11.3 22.5 0.00 0.03 0.00 80 1012.1
20260510064718 22 360 11.3 22.5 0.00 0.03 0.00 80 1012.0
20260510064617 22 360 11.3 22.5 0.00 0.03 0.00 80 1012.1
20260510064538 22 360 11.3 22.5 0.00 0.03 0.00 80 1012.1
20260510064416 22 360 11.3 17.7 0.00 0.03 0.00 80 1012.0
20260510064318 22 360 11.3 16.1 0.00 0.03 0.00 80 1012.1
20260510064218 22 360 11.3 16.1 0.00 0.03 0.00 80 1012.1
20260510064118 22 360 11.3 16.1 0.00 0.03 0.00 80 1012.1
20260510064023 22 360 11.3 16.1 0.00 0.03 0.00 79 1012.1
20260510063923 22 360 11.3 16.1 0.00 0.03 0.00 79 1012.1
20260510063845 22 360 9.7 16.1 0.00 0.03 0.00 79 1012.1
20260510063724 22 360 9.7 16.1 0.00 0.03 0.00 79 1012.1
20260510063625 22 360 9.7 16.1 0.00 0.03 0.00 79 1012.1
20260510063526 22 360 9.7 16.1 0.00 0.03 0.00 79 1012.1
20260510063427 22 360 9.7 16.1 0.00 0.03 0.00 79 1012.0
20260510063331 22 360 9.7 16.1 0.00 0.03 0.00 79 1012.1
20260510063232 22 360 9.7 16.1 0.00 0.03 0.00 79 1012.1
20260510063133 22 360 9.7 16.1 0.00 0.03 0.00 79 1012.1
20260510063034 22 360 9.7 16.1 0.00 0.03 0.00 79 1012.1
20260510062934 22 360 9.7 16.1 0.00 0.03 0.00 79 1012.1
20260510062856 22 360 9.7 16.1 0.00 0.03 0.00 79 1012.1
20260510062716 22 360 9.7 16.1 0.00 0.03 0.00 79 1012.1
20260510062620 22 360 9.7 16.1 0.00 0.03 0.00 79 1012.2
20260510062541 22 360 9.7 16.1 0.00 0.03 0.00 79 1012.2
20260510062419 22 360 9.7 16.1 0.00 0.03 0.00 79 1012.2
20260510062340 22 360 9.7 16.1 0.00 0.03 0.00 79 1012.1
20260510062219 22 360 9.7 16.1 0.00 0.03 0.00 79 1012.1
20260510062120 22 360 9.7 16.1 0.00 0.03 0.00 79 1012.1
20260510062021 22 360 8.0 16.1 0.00 0.03 0.00 79 1012.1
20260510061925 22 360 8.0 16.1 0.00 0.03 0.00 79 1012.1
20260510061826 22 360 8.0 16.1 0.00 0.03 0.00 79 1012.1
20260510061727 22 360 8.0 16.1 0.00 0.03 0.00 79 1012.1
20260510061628 22 360 8.0 16.1 0.00 0.03 0.00 79 1012.1
20260510061528 22 360 8.0 16.1 0.00 0.03 0.00 79 1012.1
20260510061428 22 360 8.0 14.5 0.00 0.03 0.00 79 1012.1
20260510061329 22 360 8.0 14.5 0.00 0.03 0.00 79 1012.0
20260510061253 22 360 8.0 14.5 0.00 0.03 0.00 79 1012.0
20260510061152 22 360 8.0 14.5 0.00 0.03 0.00 79 1012.1
20260510061032 22 360 9.7 14.5 0.00 0.03 0.00 79 1012.0
20260510060932 22 360 9.7 14.5 0.00 0.03 0.00 79 1012.0
20260510060833 22 360 8.0 14.5 0.00 0.03 0.00 79 1012.1
20260510060733 22 360 8.0 14.5 0.00 0.03 0.00 79 1012.1
20260510060634 22 360 6.4 14.5 0.00 0.03 0.00 79 1012.0
20260510060519 23 360 6.4 12.9 0.00 0.03 0.00 79 1012.0
20260510060420 23 360 6.4 12.9 0.00 0.03 0.00 79 1012.0
20260510060320 23 360 8.0 12.9 0.00 0.03 0.00 79 1012.0
20260510060220 23 360 8.0 12.9 0.00 0.03 0.00 79 1012.0
20260510060120 23 360 8.0 16.1 0.00 0.03 0.00 79 1012.1
20260510060020 23 360 8.0 16.1 0.00 0.03 0.00 79 1012.0
20260510055939 23 360 8.0 16.1 0.00 0.03 0.00 79 1012.0
20260510055824 23 360 8.0 16.1 0.00 0.03 0.00 79 1012.0
20260510055723 23 360 8.0 16.1 0.00 0.03 0.03 78 1012.1
20260510055644 23 360 8.0 16.1 0.00 0.03 0.03 78 1012.1
20260510055524 23 360 8.0 16.1 0.00 0.03 0.03 78 1012.0
20260510055425 23 360 9.7 16.1 0.00 0.03 0.03 78 1012.0
20260510055346 23 360 9.7 16.1 0.00 0.03 0.03 78 1012.0
20260510055225 23 360 9.7 16.1 0.00 0.03 0.03 78 1012.0
20260510055125 23 360 8.0 14.5 0.00 0.03 0.03 78 1011.9
20260510055030 23 360 8.0 14.5 0.00 0.03 0.03 78 1011.9
20260510054951 23 360 8.0 12.9 0.00 0.03 0.03 78 1012.0
20260510054831 23 360 8.0 12.9 0.00 0.03 0.03 78 1011.9
20260510054732 23 360 6.4 12.9 0.00 0.03 0.03 79 1011.9
20260510054631 23 360 6.4 12.9 0.00 0.03 0.03 79 1011.9
20260510054533 23 360 6.4 9.7 0.00 0.03 0.03 79 1011.9
20260510054454 23 360 6.4 9.7 0.00 0.03 0.03 79 1011.9
20260510054318 23 360 6.4 9.7 0.00 0.03 0.03 79 1012.0
20260510054218 23 360 6.4 9.7 0.00 0.03 0.03 79 1012.0
20260510054119 23 360 6.4 9.7 0.00 0.03 0.03 79 1012.0
20260510054020 23 360 6.4 9.7 0.00 0.03 0.03 79 1012.0
20260510053919 23 360 6.4 9.7 0.00 0.03 0.03 79 1012.0
20260510053840 23 360 6.4 9.7 0.00 0.03 0.03 79 1012.1
20260510053720 23 360 6.4 12.9 0.00 0.03 0.03 79 1012.1
20260510053623 23 360 6.4 12.9 0.00 0.03 0.03 79 1012.1
20260510053523 23 360 6.4 12.9 0.00 0.03 0.03 79 1012.0
20260510053423 23 360 6.4 12.9 0.00 0.03 0.03 79 1012.1
20260510053343 23 360 6.4 12.9 0.00 0.03 0.03 79 1012.1
20260510053223 23 360 6.4 12.9 0.00 0.03 0.03 79 1012.1
20260510053124 23 360 6.4 12.9 0.00 0.03 0.03 80 1012.1
20260510053025 23 360 6.4 12.9 0.00 0.03 0.03 80 1012.1
20260510052925 23 360 6.4 12.9 0.00 0.03 0.03 80 1012.1
20260510052830 23 360 6.4 9.7 0.00 0.03 0.03 80 1012.1
20260510052732 23 360 6.4 9.7 0.00 0.03 0.03 80 1012.1
20260510052632 23 360 4.8 9.7 0.00 0.03 0.03 80 1012.1
20260510052532 23 360 4.8 9.7 0.00 0.03 0.03 80 1012.1
20260510052432 23 360 4.8 9.7 0.00 0.03 0.03 80 1012.1
20260510052333 23 360 4.8 9.7 0.00 0.03 0.03 80 1012.1
20260510052216 23 360 4.8 9.7 0.00 0.03 0.03 80 1012.2
20260510052136 23 360 4.8 9.7 0.00 0.03 0.03 80 1012.2
20260510052037 23 360 4.8 9.7 0.00 0.03 0.03 80 1012.2
20260510051935 23 360 4.8 8.0 0.00 0.03 0.03 80 1012.2
20260510051816 23 360 4.8 8.0 0.00 0.03 0.03 80 1012.3
20260510051717 23 360 4.8 6.4 0.00 0.03 0.03 80 1012.2
20260510051617 23 360 4.8 6.4 0.00 0.03 0.03 80 1012.2
20260510051522 23 360 3.2 8.0 0.00 0.03 0.03 80 1012.1
20260510051424 23 360 3.2 8.0 0.00 0.03 0.03 80 1012.1
20260510051324 23 360 3.2 8.0 0.00 0.03 0.03 80 1012.0
20260510051225 23 360 4.8 8.0 0.00 0.03 0.03 80 1012.0
20260510051145 23 360 4.8 8.0 0.00 0.03 0.03 80 1012.0
20260510051023 23 360 4.8 8.0 0.00 0.03 0.03 80 1012.0
20260510050924 23 360 4.8 8.0 0.00 0.03 0.03 80 1012.0
20260510050845 23 360 4.8 8.0 0.00 0.03 0.03 80 1012.0
20260510050728 23 360 4.8 8.0 0.00 0.03 0.03 80 1012.0
20260510050629 23 360 4.8 8.0 0.00 0.03 0.03 80 1012.1
20260510050529 23 360 4.8 8.0 0.00 0.03 0.03 80 1012.1
20260510050429 23 360 4.8 8.0 0.00 0.03 0.03 80 1012.0
20260510050330 23 360 4.8 8.0 0.00 0.03 0.03 80 1012.1
20260510050231 23 360 6.4 8.0 0.00 0.03 0.03 80 1012.1
20260510050131 23 360 4.8 8.0 0.00 0.03 0.03 80 1012.1
20260510050016 23 360 6.4 8.0 0.00 0.03 0.03 80 1012.1
20260510045917 23 360 6.4 8.0 0.00 0.03 0.03 80 1012.1
20260510045839 23 360 6.4 8.0 0.00 0.03 0.03 81 1012.1
20260510045718 23 360 4.8 8.0 0.00 0.03 0.03 80 1012.0
20260510045617 23 360 4.8 8.0 0.00 0.03 0.03 80 1012.1
20260510045538 23 360 4.8 8.0 0.00 0.03 0.03 79 1012.1
20260510045418 23 360 4.8 8.0 0.00 0.03 0.03 79 1012.0
20260510045322 23 360 3.2 8.0 0.00 0.03 0.03 79 1012.0
20260510045223 23 360 4.8 8.0 0.00 0.03 0.03 79 1012.1
20260510045144 23 360 4.8 8.0 0.00 0.03 0.03 79 1012.0
20260510045023 23 360 4.8 8.0 0.00 0.03 0.03 79 1012.0
20260510044943 23 360 4.8 8.0 0.00 0.03 0.03 79 1012.0
20260510044823 23 360 4.8 8.0 0.00 0.03 0.03 79 1011.9
20260510044724 23 360 4.8 8.0 0.00 0.03 0.03 79 1012.0
20260510044628 23 360 4.8 8.0 0.00 0.03 0.03 79 1012.0
20260510044529 23 360 4.8 8.0 0.00 0.03 0.03 79 1012.0
20260510044429 24 360 4.8 9.7 0.00 0.03 0.03 79 1012.0
20260510044351 24 360 4.8 9.7 0.00 0.03 0.03 79 1012.0
20260510044231 24 360 4.8 9.7 0.00 0.03 0.03 79 1012.0
20260510044132 24 360 4.8 9.7 0.00 0.03 0.03 79 1012.0
20260510044032 24 360 4.8 9.7 0.00 0.03 0.03 78 1012.0
20260510043917 24 360 4.8 9.7 0.00 0.03 0.03 78 1012.0
20260510043818 24 360 4.8 9.7 0.00 0.03 0.03 78 1012.0
20260510043738 24 360 4.8 9.7 0.00 0.03 0.03 78 1011.9
20260510043618 24 360 6.4 9.7 0.00 0.03 0.03 78 1012.0
20260510043519 24 360 6.4 9.7 0.00 0.03 0.03 78 1012.0
20260510043440 24 360 4.8 9.7 0.00 0.03 0.03 78 1012.0
20260510043319 24 360 4.8 6.4 0.00 0.03 0.03 78 1011.9
20260510043224 24 360 3.2 6.4 0.00 0.03 0.03 78 1012.0
20260510043124 24 360 3.2 6.4 0.00 0.03 0.03 78 1011.9
20260510043025 24 360 3.2 6.4 0.00 0.03 0.03 78 1011.9
20260510042945 24 360 3.2 6.4 0.00 0.03 0.03 78 1011.9
20260510042827 24 360 3.2 6.4 0.00 0.03 0.03 78 1011.9
20260510042725 24 360 3.2 6.4 0.00 0.03 0.03 77 1011.9
20260510042626 24 360 3.2 6.4 0.00 0.03 0.03 77 1011.8
20260510042548 24 360 4.8 12.9 0.00 0.03 0.03 77 1011.9
20260510042452 24 360 4.8 12.9 0.00 0.03 0.03 77 1011.9
20260510042331 24 360 4.8 12.9 0.00 0.03 0.03 77 1011.8
20260510042231 24 360 4.8 12.9 0.00 0.03 0.03 77 1011.9
20260510042132 24 360 4.8 12.9 0.00 0.03 0.03 77 1011.9
20260510042033 24 360 4.8 12.9 0.00 0.03 0.03 77 1011.9
20260510041933 24 360 4.8 14.5 0.00 0.03 0.03 77 1011.8
20260510041817 25 360 4.8 14.5 0.00 0.03 0.03 77 1011.8
20260510041718 25 360 6.4 14.5 0.00 0.03 0.03 77 1011.9
20260510041618 25 360 6.4 14.5 0.00 0.03 0.03 77 1011.9
20260510041519 25 360 6.4 14.5 0.00 0.03 0.03 77 1011.9
20260510041420 25 360 8.0 14.5 0.00 0.03 0.03 77 1011.9
20260510041321 25 360 8.0 14.5 0.00 0.03 0.03 77 1011.9
20260510041221 25 360 6.4 14.5 0.00 0.03 0.03 77 1011.9
20260510041142 25 360 6.4 12.9 0.00 0.03 0.03 78 1011.9
20260510041025 25 360 4.8 9.7 0.00 0.03 0.03 78 1011.9
20260510040926 25 360 4.8 9.7 0.00 0.03 0.03 78 1011.9
20260510040846 25 360 3.2 8.0 0.00 0.03 0.03 78 1011.8
20260510040745 25 360 3.2 8.0 0.00 0.03 0.03 78 1011.9
20260510040625 25 360 3.2 8.0 0.00 0.03 0.03 78 1011.9
20260510040525 25 360 3.2 6.4 0.00 0.03 0.03 78 1011.9
20260510040446 25 360 3.2 6.4 0.00 0.03 0.03 78 1011.9
20260510040324 25 360 3.2 6.4 0.00 0.03 0.03 78 1011.9
20260510040223 25 360 3.2 8.0 0.00 0.03 0.03 78 1011.8
20260510040126 25 360 3.2 8.0 0.00 0.03 0.03 78 1011.7
20260510040025 25 360 3.2 8.0 0.00 0.03 0.03 78 1011.8
20260510035947 25 360 4.8 8.0 0.00 0.03 0.03 78 1011.8
20260510035825 25 360 4.8 8.0 0.00 0.03 0.03 77 1011.7
20260510035745 25 360 4.8 8.0 0.00 0.03 0.03 77 1011.8
20260510035644 25 360 4.8 8.0 0.00 0.03 0.03 77 1011.8
20260510035523 25 360 4.8 8.0 0.00 0.03 0.03 77 1011.7
20260510035424 25 360 4.8 8.0 0.00 0.03 0.03 78 1011.7
20260510035324 25 360 4.8 8.0 0.00 0.03 0.03 78 1011.7
20260510035229 25 360 4.8 8.0 0.00 0.03 0.03 78 1011.7
20260510035129 25 360 4.8 8.0 0.00 0.03 0.03 77 1011.7
20260510035049 25 360 4.8 8.0 0.00 0.03 0.03 77 1011.7
20260510034948 25 360 4.8 8.0 0.00 0.03 0.03 77 1011.7
20260510034827 25 360 4.8 8.0 0.00 0.03 0.03 77 1011.7
20260510034727 25 360 4.8 8.0 0.00 0.03 0.03 77 1011.7
20260510034645 25 360 4.8 8.0 0.00 0.03 0.03 77 1011.7
20260510034525 25 360 4.8 8.0 0.00 0.03 0.03 77 1011.7
20260510034430 25 360 4.8 8.0 0.00 0.03 0.03 77 1011.7
20260510034330 25 360 4.8 8.0 0.00 0.03 0.03 77 1011.7
20260510034230 25 360 4.8 8.0 0.00 0.03 0.03 77 1011.7
20260510034131 25 360 4.8 9.7 0.00 0.03 0.03 77 1011.7
20260510034051 25 360 4.8 9.7 0.00 0.03 0.03 77 1011.7
20260510033931 25 360 4.8 9.7 0.00 0.03 0.03 77 1011.7
20260510033816 25 360 4.8 9.7 0.00 0.03 0.03 77 1011.8
20260510033716 25 360 4.8 9.7 0.00 0.03 0.03 77 1011.7
20260510033617 25 360 4.8 9.7 0.00 0.03 0.03 77 1011.7
20260510033538 25 360 4.8 9.7 0.00 0.03 0.03 77 1011.7
20260510033437 25 360 3.2 9.7 0.00 0.03 0.03 77 1011.7
20260510033357 25 360 4.8 9.7 0.00 0.03 0.03 77 1011.7
20260510033216 25 360 4.8 9.7 0.00 0.03 0.03 77 1011.7
20260510033135 25 360 4.8 12.9 0.00 0.03 0.03 77 1011.7
20260510033020 25 360 4.8 12.9 0.00 0.03 0.03 77 1011.7
20260510032920 25 360 4.8 12.9 0.00 0.03 0.03 77 1011.7
20260510032821 25 360 6.4 12.9 0.00 0.03 0.03 77 1011.7
20260510032741 25 360 6.4 12.9 0.00 0.03 0.03 77 1011.6
20260510032620 25 360 6.4 12.9 0.00 0.03 0.03 77 1011.6
20260510032520 25 360 6.4 12.9 0.00 0.03 0.03 77 1011.5
20260510032421 25 360 6.4 12.9 0.00 0.03 0.03 77 1011.6
20260510032325 25 360 6.4 12.9 0.00 0.03 0.03 77 1011.6
20260510032227 25 360 6.4 9.7 0.00 0.03 0.03 77 1011.5
20260510032127 25 360 6.4 9.7 0.00 0.03 0.03 77 1011.6
20260510032028 25 360 6.4 9.7 0.00 0.03 0.03 77 1011.6
20260510031947 25 360 4.8 9.7 0.00 0.03 0.03 77 1011.5
20260510031827 25 360 4.8 8.0 0.00 0.03 0.03 77 1011.4
20260510031727 25 360 4.8 8.0 0.00 0.03 0.03 77 1011.5
20260510031629 25 360 4.8 8.0 0.00 0.03 0.03 77 1011.5
20260510031530 25 360 4.8 8.0 0.00 0.03 0.03 77 1011.5
20260510031429 25 360 4.8 8.0 0.00 0.03 0.03 77 1011.4
20260510031330 25 360 4.8 6.4 0.00 0.03 0.03 77 1011.4
20260510031250 25 360 4.8 6.4 0.00 0.03 0.03 77 1011.4
20260510031130 25 360 4.8 6.4 0.00 0.03 0.03 77 1011.4
20260510031029 25 360 4.8 6.4 0.00 0.03 0.03 77 1011.3
20260510030935 25 360 4.8 6.4 0.00 0.03 0.03 77 1011.4
20260510030817 26 360 4.8 6.4 0.00 0.03 0.03 77 1011.4
20260510030738 26 360 4.8 6.4 0.00 0.03 0.03 77 1011.4
20260510030637 26 360 4.8 6.4 0.00 0.03 0.03 77 1011.4
20260510030517 26 360 3.2 6.4 0.00 0.03 0.03 77 1011.3
20260510030418 26 360 3.2 9.7 0.00 0.03 0.03 77 1011.3
20260510030338 26 360 3.2 9.7 0.00 0.03 0.03 77 1011.3
20260510030217 26 360 3.2 9.7 0.00 0.03 0.03 77 1011.4
20260510030121 26 360 3.2 9.7 0.00 0.03 0.03 77 1011.3
20260510030021 26 360 4.8 9.7 0.00 0.03 0.03 77 1011.3
20260510025920 26 360 4.8 9.7 0.00 0.03 0.03 77 1011.4
20260510025822 26 360 4.8 9.7 0.00 0.03 0.03 77 1011.4
20260510025720 26 360 4.8 9.7 0.00 0.03 0.03 77 1011.3
20260510025620 26 360 4.8 9.7 0.00 0.03 0.03 77 1011.3
20260510025520 26 360 6.4 9.7 0.00 0.03 0.03 77 1011.3
20260510025422 26 360 6.4 9.7 0.00 0.03 0.03 77 1011.3
20260510025326 26 360 6.4 9.7 0.00 0.03 0.03 77 1011.2
20260510025227 26 360 6.4 9.7 0.00 0.03 0.03 77 1011.2
20260510025129 26 360 6.4 9.7 0.00 0.03 0.03 77 1011.2
20260510025030 26 360 6.4 9.7 0.00 0.03 0.03 77 1011.2
20260510024930 26 360 6.4 9.7 0.00 0.03 0.03 77 1011.2
20260510024830 26 360 6.4 9.7 0.00 0.03 0.03 77 1011.1
20260510024735 26 360 6.4 9.7 0.00 0.03 0.03 77 1011.1
20260510024656 26 360 6.4 12.9 0.00 0.03 0.03 77 1011.1
20260510024437 26 360 4.8 16.1 0.00 0.03 0.03 77 1011.0
20260510024316 26 360 4.8 16.1 0.00 0.03 0.03 77 1011.1
20260510024217 26 360 6.4 16.1 0.00 0.03 0.03 77 1011.0
20260510024137 26 360 6.4 16.1 0.00 0.03 0.03 77 1011.0
20260510024036 26 360 8.0 16.1 0.00 0.03 0.03 77 1011.0
20260510023920 26 360 9.7 16.1 0.00 0.03 0.03 77 1010.9
20260510023821 26 360 8.0 16.1 0.00 0.03 0.03 77 1011.0
20260510023722 26 360 9.7 16.1 0.00 0.03 0.03 77 1011.0
20260510023622 26 360 9.7 17.7 0.00 0.03 0.03 77 1011.0
20260510023523 26 360 8.0 17.7 0.00 0.03 0.03 76 1010.9
20260510023423 26 360 9.7 17.7 0.00 0.03 0.03 76 1010.9
20260510023323 26 360 9.7 17.7 0.00 0.03 0.03 76 1011.0
20260510023228 26 360 9.7 17.7 0.00 0.03 0.03 76 1011.0
20260510023127 26 360 11.3 17.7 0.00 0.03 0.03 76 1010.9
20260510023027 26 360 11.3 17.7 0.00 0.03 0.03 76 1010.8
20260510022925 26 360 11.3 17.7 0.00 0.03 0.03 76 1010.8
20260510022825 26 360 11.3 17.7 0.00 0.03 0.03 76 1010.8
20260510022723 26 360 9.7 17.7 0.00 0.03 0.03 76 1010.8
20260510022624 26 360 9.7 14.5 0.00 0.03 0.03 76 1010.8
20260510022521 26 360 9.7 14.5 0.00 0.03 0.03 76 1010.8
20260510022423 26 360 9.7 14.5 0.00 0.03 0.03 76 1010.7
20260510022327 26 360 9.7 14.5 0.00 0.03 0.03 76 1010.7
20260510022227 26 360 9.7 14.5 0.00 0.03 0.03 76 1010.8
20260510022128 26 360 8.0 16.1 0.00 0.03 0.03 76 1010.8
20260510022049 26 360 8.0 19.3 0.00 0.03 0.03 76 1010.8
20260510021949 26 360 8.0 19.3 0.00 0.03 0.03 75 1010.7
20260510021828 26 360 8.0 19.3 0.00 0.03 0.03 75 1010.8
20260510021727 26 360 9.7 19.3 0.00 0.03 0.03 75 1010.7
20260510021649 26 360 9.7 19.3 0.00 0.03 0.03 75 1010.7
20260510021551 26 360 11.3 19.3 0.00 0.03 0.03 75 1010.7
20260510021431 26 360 11.3 20.9 0.00 0.03 0.03 75 1010.7
20260510021352 26 360 11.3 20.9 0.00 0.03 0.03 75 1010.7
20260510021252 26 360 11.3 20.9 0.00 0.03 0.03 75 1010.8
20260510021152 26 360 12.9 20.9 0.00 0.03 0.03 75 1010.7
20260510021031 26 360 11.3 20.9 0.00 0.03 0.03 75 1010.7
20260510020932 26 360 12.9 20.9 0.00 0.03 0.03 75 1010.7
20260510020831 26 360 14.5 20.9 0.00 0.03 0.03 75 1010.6
20260510020731 26 360 12.9 20.9 0.00 0.03 0.03 75 1010.7
20260510020634 26 360 12.9 20.9 0.00 0.03 0.03 75 1010.7
20260510020517 26 360 12.9 20.9 0.00 0.03 0.03 75 1010.7
20260510020437 26 360 11.3 17.7 0.00 0.03 0.03 74 1010.6
20260510020316 26 360 11.3 17.7 0.00 0.03 0.03 74 1010.6
20260510020217 27 360 11.3 17.7 0.00 0.03 0.03 74 1010.6
20260510020118 26 360 11.3 17.7 0.00 0.03 0.03 74 1010.6
20260510020018 26 360 11.3 17.7 0.00 0.03 0.03 74 1010.5
20260510015943 26 360 11.3 17.7 0.00 0.03 0.03 74 1010.6
20260510015823 26 360 11.3 17.7 0.00 0.03 0.03 74 1010.6
20260510015722 26 360 11.3 17.7 0.00 0.03 0.03 74 1010.5
20260510015622 26 360 9.7 17.7 0.00 0.03 0.03 74 1010.5
20260510015522 27 360 9.7 16.1 0.00 0.03 0.03 74 1010.5
20260510015423 26 360 9.7 16.1 0.00 0.03 0.03 74 1010.5
20260510015323 26 360 9.7 14.5 0.00 0.03 0.03 74 1010.5
20260510015228 26 360 9.7 14.5 0.00 0.03 0.03 74 1010.5
20260510015149 26 360 9.7 14.5 0.00 0.03 0.03 74 1010.4
20260510015048 26 360 9.7 14.5 0.00 0.03 0.03 74 1010.5
20260510014948 26 360 8.0 14.5 0.00 0.03 0.03 74 1010.5
20260510014827 27 360 8.0 14.5 0.00 0.03 0.03 74 1010.5
20260510014727 27 360 8.0 12.9 0.00 0.03 0.03 74 1010.4
20260510014627 27 360 6.4 9.7 0.00 0.03 0.03 74 1010.4
20260510014528 27 360 6.4 9.7 0.00 0.03 0.03 74 1010.4
20260510014428 27 360 6.4 8.0 0.00 0.03 0.03 73 1010.4
20260510014352 27 360 6.4 8.0 0.00 0.03 0.03 73 1010.3
20260510014232 27 360 6.4 8.0 0.00 0.03 0.03 73 1010.4
20260510014133 27 360 6.4 8.0 0.00 0.03 0.03 73 1010.3
20260510014054 27 360 4.8 8.0 0.00 0.03 0.03 73 1010.4
20260510013933 27 360 4.8 8.0 0.00 0.03 0.03 73 1010.4
20260510013834 27 360 4.8 6.4 0.00 0.03 0.03 73 1010.4
20260510013735 27 360 4.8 6.4 0.00 0.03 0.03 72 1010.3
20260510013620 27 360 4.8 6.4 0.00 0.03 0.03 72 1010.4
20260510013521 27 360 4.8 6.4 0.00 0.03 0.03 72 1010.3
20260510013422 27 360 4.8 6.4 0.00 0.03 0.03 72 1010.3
20260510013324 27 360 4.8 6.4 0.00 0.03 0.03 72 1010.2
20260510013225 27 360 4.8 6.4 0.00 0.03 0.03 72 1010.2
20260510013125 27 360 4.8 6.4 0.00 0.03 0.03 73 1010.3
20260510013029 27 360 4.8 6.4 0.00 0.03 0.03 72 1010.3
20260510012930 27 360 4.8 6.4 0.00 0.03 0.03 72 1010.3
20260510012850 27 360 4.8 8.0 0.00 0.03 0.03 72 1010.2
20260510012731 27 360 4.8 8.0 0.00 0.03 0.03 72 1010.2
20260510012630 27 360 4.8 8.0 0.00 0.03 0.03 71 1010.3
20260510012531 27 360 4.8 8.0 0.00 0.03 0.03 71 1010.3
20260510012432 27 360 4.8 8.0 0.00 0.03 0.03 71 1010.3
20260510012336 27 360 4.8 8.0 0.00 0.03 0.03 71 1010.2
20260510012216 27 360 4.8 8.0 0.00 0.03 0.03 71 1010.2
20260510012117 27 360 4.8 8.0 0.00 0.03 0.03 71 1010.2
20260510012017 27 360 4.8 8.0 0.00 0.03 0.03 71 1010.2
20260510011919 27 360 4.8 8.0 0.00 0.03 0.03 71 1010.2
20260510011820 27 360 4.8 8.0 0.00 0.03 0.03 71 1010.2
20260510011727 27 360 4.8 12.9 0.00 0.03 0.03 70 1010.2
20260510011626 27 360 4.8 12.9 0.00 0.03 0.03 70 1010.3
20260510011525 27 360 6.4 12.9 0.00 0.03 0.03 70 1010.2
20260510011426 27 360 6.4 12.9 0.00 0.03 0.03 70 1010.2
20260510011327 27 360 6.4 12.9 0.00 0.03 0.03 70 1010.1
20260510011226 27 360 6.4 12.9 0.00 0.03 0.03 70 1010.2
20260510011127 27 360 6.4 12.9 0.00 0.03 0.03 70 1010.2
20260510011031 27 360 6.4 12.9 0.00 0.03 0.03 69 1010.2
20260510010932 27 360 6.4 14.5 0.00 0.03 0.03 69 1010.2
20260510010833 27 360 6.4 14.5 0.00 0.03 0.03 69 1010.2
20260510010733 27 360 6.4 14.5 0.00 0.03 0.03 69 1010.2
20260510010653 27 360 8.0 14.5 0.00 0.03 0.03 69 1010.1
20260510010533 28 360 8.0 14.5 0.00 0.03 0.03 69 1010.2
20260510010419 28 360 8.0 14.5 0.00 0.03 0.03 69 1010.1
20260510010319 28 360 8.0 14.5 0.00 0.03 0.03 69 1010.1
20260510010220 28 360 8.0 14.5 0.00 0.03 0.03 69 1010.1
20260510010119 28 360 8.0 16.1 0.00 0.03 0.03 69 1010.1
20260510010020 28 360 8.0 16.1 0.00 0.03 0.03 69 1010.0
20260510005920 28 360 8.0 16.1 0.00 0.03 0.03 69 1010.0
20260510005822 28 360 8.0 16.1 0.00 0.03 0.03 69 1010.0
20260510005746 28 360 8.0 16.1 0.00 0.03 0.03 69 1010.1
20260510005627 28 360 8.0 16.1 0.00 0.03 0.03 68 1010.1
20260510005526 28 360 9.7 16.1 0.00 0.03 0.03 68 1010.1
20260510005427 28 360 9.7 17.7 0.00 0.03 0.03 68 1010.0
20260510005326 28 360 8.0 17.7 0.00 0.03 0.03 68 1010.0
20260510005227 28 360 8.0 17.7 0.00 0.03 0.03 68 1010.0
20260510005127 28 360 8.0 17.7 0.00 0.03 0.03 68 1010.0
20260510005032 28 360 8.0 17.7 0.00 0.03 0.03 68 1010.0
20260510004932 28 360 8.0 17.7 0.00 0.03 0.03 68 1010.0
20260510004832 28 360 8.0 17.7 0.00 0.03 0.03 68 1010.0
20260510004733 28 360 8.0 17.7 0.00 0.03 0.03 68 1010.0
20260510004634 28 360 9.7 17.7 0.00 0.03 0.03 68 1010.0
20260510004535 28 360 9.7 17.7 0.00 0.03 0.03 67 1009.9
20260510004419 28 360 9.7 17.7 0.00 0.03 0.03 67 1010.0
20260510004320 28 360 9.7 17.7 0.00 0.03 0.03 67 1009.9
20260510004221 28 360 8.0 17.7 0.00 0.03 0.03 67 1009.9
20260510004122 28 360 8.0 17.7 0.00 0.03 0.03 67 1009.9
20260510004024 28 360 6.4 16.1 0.00 0.03 0.03 67 1009.9
20260510003924 28 360 6.4 16.1 0.00 0.03 0.03 67 1009.9
20260510003829 28 360 6.4 16.1 0.00 0.03 0.03 67 1009.9
20260510003729 28 360 8.0 16.1 0.00 0.03 0.03 67 1009.9
20260510003630 28 360 8.0 16.1 0.00 0.03 0.03 66 1009.9
20260510003530 28 360 9.7 16.1 0.00 0.03 0.03 66 1009.9
20260510003431 28 360 11.3 16.1 0.00 0.03 0.03 66 1009.9
20260510003331 28 360 11.3 16.1 0.00 0.03 0.03 66 1009.9
20260510003216 28 360 9.7 16.1 0.00 0.03 0.03 66 1009.9
20260510003116 28 360 9.7 16.1 0.00 0.03 0.03 66 1009.8
20260510003017 28 360 9.7 16.1 0.00 0.03 0.03 66 1009.8
20260510002916 28 360 9.7 16.1 0.00 0.03 0.03 66 1009.9
20260510002817 28 360 9.7 16.1 0.00 0.03 0.03 65 1009.8
20260510002717 28 360 9.7 19.3 0.00 0.03 0.03 65 1009.8
20260510002619 28 360 9.7 19.3 0.00 0.03 0.03 65 1009.7
20260510002523 28 360 11.3 19.3 0.00 0.03 0.03 65 1009.8
20260510002423 29 360 9.7 19.3 0.00 0.03 0.03 65 1009.8
20260510002324 29 360 11.3 19.3 0.00 0.03 0.03 65 1009.8
20260510002244 29 360 11.3 19.3 0.00 0.03 0.03 65 1009.8
20260510002144 29 360 11.3 19.3 0.00 0.03 0.03 65 1009.8
20260510002023 29 360 11.3 19.3 0.00 0.03 0.03 65 1009.7
20260510001924 29 360 11.3 19.3 0.00 0.03 0.03 64 1009.7
20260510001824 29 360 9.7 17.7 0.00 0.03 0.03 64 1009.7
20260510001729 29 360 9.7 17.7 0.00 0.03 0.03 64 1009.7
20260510001629 29 360 8.0 16.1 0.00 0.03 0.03 64 1009.7
20260510001529 29 360 8.0 17.7 0.00 0.03 0.03 64 1009.7
20260510001429 29 360 8.0 17.7 0.00 0.03 0.03 64 1009.7
20260510001330 29 360 8.0 17.7 0.00 0.03 0.03 64 1009.7
20260510001230 29 360 8.0 17.7 0.00 0.03 0.03 64 1009.6
20260510001131 29 360 9.7 17.7 0.00 0.03 0.03 64 1009.7
20260510001036 29 360 11.3 17.7 0.00 0.03 0.03 64 1009.6
20260510000955 29 360 11.3 17.7 0.00 0.03 0.03 64 1009.7
20260510000835 29 360 11.3 17.7 0.00 0.03 0.03 63 1009.7
20260510000735 29 360 9.7 16.1 0.00 0.03 0.03 63 1009.7
20260510000635 29 360 8.0 16.1 0.00 0.03 0.03 63 1009.6
20260510000535 29 360 6.4 16.1 0.00 0.03 0.03 63 1009.6
20260510000435 29 360 4.8 16.1 0.00 0.03 0.03 63 1009.6
20260510000320 29 360 4.8 16.1 0.00 0.03 0.03 63 1009.6
20260510000221 29 360 6.4 16.1 0.00 0.03 0.03 63 1009.6
20260510000142 29 360 8.0 16.1 0.00 0.03 0.03 63 1009.7
20260510000022 29 360 8.0 16.1 0.00 0.03 0.03 63 1009.6
20260509235921 29 360 9.7 16.1 0.00 0.03 0.03 63 1009.6
20260509235824 29 360 11.3 16.1 0.00 0.03 0.03 62 1009.6
20260509235723 29 360 11.3 16.1 0.00 0.03 0.03 62 1009.6
20260509235629 29 360 9.7 16.1 0.00 0.03 0.03 62 1009.6
20260509235549 29 360 9.7 17.7 0.00 0.03 0.03 62 1009.7
20260509235428 29 360 9.7 17.7 0.00 0.03 0.03 61 1009.6
20260509235329 29 360 9.7 17.7 0.00 0.03 0.03 61 1009.6
20260509235229 30 360 9.7 17.7 0.00 0.03 0.03 61 1009.5
20260509235130 30 360 9.7 17.7 0.00 0.03 0.03 61 1009.6
20260509235050 30 360 9.7 17.7 0.00 0.03 0.03 61 1009.5
20260509234934 30 360 9.7 17.7 0.00 0.03 0.03 61 1009.5
20260509234834 30 360 9.7 17.7 0.00 0.03 0.03 61 1009.5
20260509234755 30 360 11.3 17.7 0.00 0.03 0.03 61 1009.5
20260509234653 30 360 9.7 17.7 0.00 0.03 0.03 60 1009.4
20260509234533 30 360 9.7 16.1 0.00 0.03 0.03 59 1009.4
20260509234434 30 360 9.7 16.1 0.00 0.03 0.03 59 1009.4
20260509234334 30 360 8.0 17.7 0.00 0.03 0.03 59 1009.4
20260509234255 30 360 8.0 19.3 0.00 0.03 0.03 59 1009.4
20260509234117 30 360 8.0 19.3 0.00 0.03 0.03 59 1009.4
20260509234038 30 360 8.0 19.3 0.00 0.03 0.03 59 1009.4
20260509233937 30 360 9.7 19.3 0.00 0.03 0.03 59 1009.4
20260509233858 30 360 11.3 19.3 0.00 0.03 0.03 59 1009.4
20260509233757 30 360 11.3 19.3 0.00 0.03 0.03 59 1009.4
20260509233617 30 360 12.9 19.3 0.00 0.03 0.03 59 1009.4
20260509233517 30 360 12.9 19.3 0.00 0.03 0.03 58 1009.3
20260509233417 30 360 12.9 19.3 0.00 0.03 0.03 59 1009.3
20260509233322 30 360 12.9 19.3 0.00 0.03 0.03 59 1009.4
20260509233223 30 360 11.3 19.3 0.00 0.03 0.03 59 1009.4
20260509233123 30 360 11.3 19.3 0.00 0.03 0.03 58 1009.3
20260509233024 30 360 12.9 19.3 0.00 0.03 0.03 58 1009.4
20260509232923 30 360 12.9 19.3 0.00 0.03 0.03 58 1009.3
20260509232825 30 360 12.9 19.3 0.00 0.03 0.03 59 1009.3
20260509232745 30 360 12.9 19.3 0.00 0.03 0.03 58 1009.2
20260509232629 30 360 12.9 19.3 0.00 0.03 0.03 58 1009.2
20260509232529 30 360 12.9 19.3 0.00 0.03 0.03 58 1009.4
20260509232428 30 360 11.3 20.9 0.00 0.03 0.03 59 1009.4
20260509232348 30 360 9.7 20.9 0.00 0.03 0.03 58 1009.3
20260509232227 30 360 9.7 20.9 0.00 0.03 0.03 58 1009.3
20260509232128 30 360 11.3 20.9 0.00 0.03 0.03 57 1009.3
20260509232029 30 360 11.3 20.9 0.00 0.03 0.03 57 1009.3
20260509231928 30 360 11.3 20.9 0.00 0.03 0.03 57 1009.3
20260509231833 30 360 12.9 20.9 0.00 0.03 0.03 57 1009.3
20260509231754 30 360 12.9 20.9 0.00 0.03 0.03 57 1009.2
20260509231634 30 360 11.3 20.9 0.00 0.03 0.03 57 1009.2
20260509231533 30 360 11.3 19.3 0.00 0.03 0.03 56 1009.2
20260509231434 30 360 11.3 19.3 0.00 0.03 0.03 56 1009.3
20260509231335 30 360 11.3 19.3 0.00 0.03 0.03 56 1009.2
20260509231219 30 360 11.3 19.3 0.00 0.03 0.03 55 1009.3
20260509231120 30 360 11.3 17.7 0.00 0.03 0.03 55 1009.2
20260509231040 30 360 9.7 17.7 0.00 0.03 0.03 54 1009.3
20260509230919 30 360 8.0 17.7 0.00 0.03 0.03 54 1009.3
20260509230821 30 360 9.7 17.7 0.00 0.03 0.03 54 1009.3
20260509230721 30 360 9.7 17.7 0.00 0.03 0.03 53 1009.2
20260509230621 30 360 9.7 17.7 0.00 0.03 0.03 52 1009.3
20260509230526 30 360 9.7 17.7 0.00 0.03 0.03 52 1009.3
20260509230427 30 360 9.7 17.7 0.00 0.03 0.03 52 1009.3
20260509230329 30 360 11.3 17.7 0.00 0.03 0.03 52 1009.2
20260509230248 30 360 9.7 17.7 0.00 0.03 0.03 52 1009.3
20260509230148 30 360 11.3 17.7 0.00 0.03 0.03 51 1009.2
20260509230025 30 360 11.3 17.7 0.00 0.03 0.03 51 1009.3
20260509225924 30 360 11.3 17.7 0.00 0.03 0.03 51 1009.3
20260509225825 30 360 9.7 17.7 0.00 0.03 0.03 51 1009.3
20260509225728 30 360 9.7 17.7 0.00 0.03 0.03 51 1009.2
20260509225627 31 360 8.0 17.7 0.00 0.03 0.03 51 1009.2
20260509225528 30 360 8.0 17.7 0.00 0.03 0.03 51 1009.3
20260509225429 30 360 9.7 17.7 0.00 0.03 0.03 51 1009.2
20260509225328 30 360 8.0 19.3 0.00 0.03 0.03 50 1009.2
20260509225229 30 360 8.0 19.3 0.00 0.03 0.03 49 1009.3
20260509225150 31 360 9.7 19.3 0.00 0.03 0.03 49 1009.3
20260509225032 31 360 9.7 19.3 0.00 0.03 0.03 49 1009.2
20260509224953 31 360 9.7 19.3 0.00 0.03 0.03 48 1009.2
20260509224852 31 360 8.0 19.3 0.00 0.03 0.03 48 1009.3
20260509224733 31 360 9.7 19.3 0.00 0.03 0.03 47 1009.2
20260509224633 31 360 9.7 19.3 0.00 0.03 0.03 47 1009.2
20260509224535 31 360 9.7 19.3 0.00 0.03 0.03 47 1009.2
20260509224435 31 360 9.7 19.3 0.00 0.03 0.03 47 1009.2
20260509224322 31 360 9.7 19.3 0.00 0.03 0.03 46 1009.3
20260509224222 31 360 11.3 19.3 0.00 0.03 0.03 46 1009.2
20260509224122 31 360 9.7 19.3 0.00 0.03 0.03 47 1009.4
20260509224043 31 360 8.0 20.9 0.00 0.03 0.03 47 1009.2
20260509223923 31 115 8.0 20.9 0.00 0.03 0.03 47 1009.2
20260509223823 31 360 8.0 20.9 0.00 0.03 0.03 47 1009.3
20260509223724 31 360 8.0 20.9 0.00 0.03 0.03 47 1009.3
20260509223628 31 360 8.0 20.9 0.00 0.03 0.03 47 1009.3
20260509223528 31 360 9.7 20.9 0.00 0.03 0.03 48 1009.3
20260509223430 31 360 9.7 17.7 0.00 0.03 0.03 47 1009.3
20260509223331 31 360 9.7 17.7 0.00 0.03 0.03 47 1009.3
20260509223252 31 360 11.3 17.7 0.00 0.03 0.03 47 1009.2
20260509223152 31 360 9.7 17.7 0.00 0.03 0.03 48 1009.2
20260509223030 31 360 9.7 17.7 0.00 0.03 0.03 48 1009.2
20260509222951 31 360 9.7 17.7 0.00 0.03 0.03 48 1009.2
20260509222834 31 360 9.7 17.7 0.00 0.03 0.03 48 1009.2
20260509222736 31 360 8.0 17.7 0.00 0.03 0.03 48 1009.2
20260509222616 31 360 8.0 16.1 0.00 0.03 0.03 49 1009.1
20260509222517 31 360 9.7 16.1 0.00 0.03 0.03 50 1009.1
20260509222418 31 360 9.7 16.1 0.00 0.03 0.03 51 1009.1
20260509222338 31 360 8.0 16.1 0.00 0.03 0.03 51 1009.1
20260509222218 31 360 8.0 16.1 0.00 0.03 0.03 51 1009.1
20260509222122 31 360 8.0 16.1 0.00 0.03 0.03 51 1009.2
20260509222023 31 360 9.7 16.1 0.00 0.03 0.03 51 1009.0
20260509221923 31 360 8.0 16.1 0.00 0.03 0.03 51 1009.2
20260509221824 31 360 6.4 16.1 0.00 0.03 0.03 52 1009.1
20260509221725 31 360 6.4 16.1 0.00 0.03 0.03 52 1009.1
20260509221625 31 360 8.0 16.1 0.00 0.03 0.03 52 1009.1
20260509221529 30 360 8.0 16.1 0.00 0.03 0.03 52 1009.1
20260509221431 30 360 8.0 14.5 0.00 0.03 0.03 52 1009.1
20260509221332 30 360 8.0 14.5 0.00 0.03 0.03 52 1009.1
20260509221232 30 360 8.0 14.5 0.00 0.03 0.03 52 1009.1
20260509221154 30 360 8.0 14.5 0.00 0.03 0.03 53 1009.1
20260509221034 30 360 8.0 14.5 0.00 0.03 0.03 52 1009.1
20260509220955 30 360 8.0 14.5 0.00 0.03 0.03 52 1009.1
20260509220854 30 360 8.0 14.5 0.00 0.03 0.03 52 1009.0
20260509220718 31 360 6.4 12.9 0.00 0.03 0.03 53 1009.0
20260509220619 31 360 6.4 9.7 0.00 0.03 0.03 53 1009.0
20260509220519 31 360 6.4 9.7 0.00 0.03 0.03 53 1009.0
20260509220420 31 360 6.4 9.7 0.00 0.03 0.03 53 1009.0
20260509220322 31 360 4.8 9.7 0.00 0.03 0.03 53 1009.0
20260509220221 31 360 4.8 9.7 0.00 0.03 0.03 53 1009.1
20260509220126 31 69 4.8 9.7 0.00 0.03 0.03 53 1009.1
20260509220024 31 71 3.2 9.7 0.00 0.03 0.03 53 1009.2
20260509215925 31 360 3.2 9.7 0.00 0.03 0.03 53 1009.1
20260509215826 31 360 3.2 12.9 0.00 0.03 0.03 53 1009.1
20260509215746 31 360 3.2 12.9 0.00 0.03 0.03 53 1009.1
20260509215626 31 360 3.2 12.9 0.00 0.03 0.03 53 1009.2
20260509215526 31 360 3.2 12.9 0.00 0.03 0.03 53 1009.1
20260509215430 31 360 3.2 12.9 0.00 0.03 0.03 53 1009.1
20260509215351 31 360 3.2 12.9 0.00 0.03 0.03 53 1009.1
20260509215231 31 360 4.8 12.9 0.00 0.03 0.03 54 1009.2
20260509215151 31 360 4.8 12.9 0.00 0.03 0.03 54 1009.1
20260509215030 31 360 4.8 12.9 0.00 0.03 0.03 54 1009.2
20260509214931 30 360 3.2 16.1 0.00 0.03 0.03 54 1009.2
20260509214831 30 360 3.2 16.1 0.00 0.03 0.03 54 1009.2
20260509214732 30 360 3.2 16.1 0.00 0.03 0.03 54 1009.2
20260509214635 30 360 3.2 16.1 0.00 0.03 0.03 54 1009.2
20260509214535 30 360 3.2 16.1 0.00 0.03 0.03 54 1009.2
20260509214416 30 360 3.2 16.1 0.00 0.03 0.03 54 1009.3
20260509214317 30 360 4.8 16.1 0.00 0.03 0.03 55 1009.3
20260509214217 30 360 6.4 20.9 0.00 0.03 0.03 55 1009.2
20260509214117 30 360 6.4 20.9 0.00 0.03 0.03 55 1009.3
20260509214040 30 360 6.4 20.9 0.00 0.03 0.03 55 1009.3
20260509213922 30 360 6.4 20.9 0.00 0.03 0.03 55 1009.4
20260509213823 30 360 6.4 20.9 0.00 0.03 0.03 55 1009.3
20260509213744 30 360 8.0 20.9 0.00 0.03 0.03 55 1009.3
20260509213623 30 360 8.0 20.9 0.00 0.03 0.03 55 1009.3
20260509213523 30 360 8.0 20.9 0.00 0.03 0.03 55 1009.4
20260509213425 30 360 9.7 20.9 0.00 0.03 0.03 55 1009.4
20260509213344 29 360 9.7 20.9 0.00 0.03 0.03 54 1009.5
20260509213229 29 360 11.3 20.9 0.00 0.03 0.03 54 1009.5
20260509213130 29 360 11.3 24.1 0.00 0.03 0.03 52 1009.5
20260509213031 29 360 11.3 24.1 0.00 0.03 0.03 52 1009.4
20260509212932 29 360 9.7 24.1 0.00 0.03 0.03 52 1009.4
20260509212832 29 360 11.3 24.1 0.00 0.03 0.03 52 1009.5
20260509212734 29 360 11.3 24.1 0.00 0.03 0.03 52 1009.6
20260509212619 29 360 11.3 24.1 0.00 0.03 0.03 52 1009.6
20260509212519 29 360 12.9 24.1 0.00 0.03 0.03 53 1009.7
20260509212419 28 360 14.5 25.7 0.00 0.03 0.03 52 1009.7
20260509212320 28 360 12.9 25.7 0.00 0.03 0.03 52 1009.7
20260509212220 28 360 12.9 25.7 0.00 0.03 0.03 52 1009.8
20260509212119 28 360 12.9 32.2 0.00 0.03 0.03 53 1009.7
20260509212020 28 360 11.3 32.2 0.00 0.03 0.03 53 1009.8
20260509211940 28 360 12.9 32.2 0.00 0.03 0.03 54 1009.7
20260509211844 28 360 14.5 32.2 0.00 0.03 0.03 53 1009.8
20260509211723 28 360 14.5 32.2 0.00 0.03 0.03 53 1009.8
20260509211624 27 360 14.5 32.2 0.00 0.03 0.03 54 1009.8
20260509211525 27 360 12.9 32.2 0.00 0.03 0.03 54 1009.8
20260509211446 27 360 11.3 32.2 0.00 0.03 0.03 54 1009.8
20260509211324 27 360 12.9 35.4 0.00 0.03 0.03 54 1009.9
20260509211225 27 360 16.1 35.4 0.00 0.03 0.03 55 1009.9
20260509211145 27 360 17.7 35.4 0.00 0.03 0.03 55 1009.9
20260509211029 27 360 20.9 35.4 0.00 0.03 0.03 55 1009.9
20260509210929 27 360 22.5 35.4 0.00 0.03 0.03 55 1009.9
20260509210830 27 360 20.9 35.4 0.00 0.03 0.03 54 1010.0
20260509210732 27 360 19.3 35.4 0.00 0.03 0.03 55 1010.0
20260509210632 27 360 19.3 35.4 0.00 0.03 0.03 55 1010.1
20260509210533 28 360 19.3 32.2 0.00 0.03 0.03 56 1010.1
20260509210418 28 360 17.7 32.2 0.00 0.03 0.03 55 1010.0
20260509210338 28 360 17.7 32.2 0.00 0.03 0.03 55 1009.9
20260509210237 28 360 17.7 32.2 0.00 0.03 0.03 55 1009.9
20260509210158 28 360 17.7 32.2 0.00 0.03 0.03 56 1010.0
20260509210058 28 360 17.7 32.2 0.00 0.03 0.03 57 1009.9
20260509205957 28 360 17.7 32.2 0.00 0.03 0.03 57 1009.9
20260509205818 28 360 17.7 37.0 0.00 0.03 0.03 56 1010.0
20260509205717 28 360 16.1 37.0 0.00 0.03 0.03 55 1010.0
20260509205621 28 360 14.5 37.0 0.00 0.03 0.03 55 1010.0
20260509205522 28 360 14.5 37.0 0.00 0.03 0.03 55 1010.0
20260509205422 28 360 11.3 37.0 0.00 0.03 0.03 55 1010.0
20260509205323 28 360 12.9 37.0 0.00 0.03 0.03 55 1010.0
20260509205223 28 360 16.1 37.0 0.00 0.03 0.03 55 1009.9
20260509205124 28 360 17.7 37.0 0.00 0.03 0.03 55 1010.0
20260509205025 28 360 19.3 37.0 0.00 0.03 0.03 55 1010.1
20260509204929 28 360 17.7 37.0 0.00 0.03 0.03 54 1010.1
20260509204829 28 360 17.7 37.0 0.00 0.03 0.03 53 1010.1
20260509204730 29 360 12.9 37.0 0.00 0.03 0.03 56 1010.1
20260509204630 29 360 9.7 32.2 0.00 0.03 0.03 60 1010.1
20260509204530 29 360 8.0 32.2 0.00 0.03 0.03 60 1010.1
20260509204430 29 360 8.0 32.2 0.00 0.03 0.03 60 1010.1
20260509204351 28 360 9.7 32.2 0.00 0.03 0.03 61 1010.1
20260509204250 28 360 11.3 32.2 0.00 0.03 0.03 61 1010.1
20260509204134 28 360 12.9 32.2 0.00 0.03 0.03 61 1010.2
20260509204054 28 360 14.5 32.2 0.00 0.03 0.03 61 1010.2
20260509203933 28 360 14.5 32.2 0.00 0.03 0.03 61 1010.2
20260509203831 28 360 17.7 32.2 0.00 0.03 0.03 61 1010.2
20260509203731 28 360 19.3 32.2 0.00 0.03 0.03 62 1010.3
20260509203632 28 360 17.7 32.2 0.00 0.03 0.03 62 1010.3
20260509203516 28 360 16.1 29.0 0.00 0.03 0.03 64 1010.2
20260509203418 28 360 12.9 22.5 0.00 0.03 0.03 66 1010.2
20260509203318 28 360 9.7 22.5 0.00 0.03 0.03 66 1010.3
20260509203219 28 360 9.7 22.5 0.00 0.03 0.03 66 1010.3
20260509203119 28 360 9.7 19.3 0.00 0.03 0.03 66 1010.3
20260509203020 28 360 9.7 19.3 0.00 0.03 0.03 66 1010.2
20260509202919 28 360 9.7 19.3 0.00 0.03 0.03 65 1010.3
20260509202824 28 360 9.7 19.3 0.00 0.03 0.03 66 1010.3
20260509202723 28 360 11.3 19.3 0.00 0.03 0.03 65 1010.3
20260509202621 28 360 12.9 20.9 0.00 0.03 0.03 65 1010.3
20260509202521 29 360 11.3 25.7 0.00 0.03 0.03 65 1010.3
20260509202421 29 360 11.3 25.7 0.00 0.03 0.03 65 1010.4
20260509202322 29 360 11.3 25.7 0.00 0.03 0.03 65 1010.3
20260509202223 29 360 11.3 25.7 0.00 0.03 0.03 65 1010.3
20260509202128 29 360 11.3 25.7 0.00 0.03 0.03 65 1010.3
20260509202049 29 360 12.9 25.7 0.00 0.03 0.03 63 1010.3
20260509201928 30 360 14.5 25.7 0.00 0.03 0.03 63 1010.3
20260509201828 30 360 16.1 25.7 0.00 0.03 0.03 61 1010.3
20260509201729 30 360 14.5 25.7 0.00 0.03 0.03 61 1010.2
20260509201629 31 360 12.9 25.7 0.00 0.03 0.03 60 1010.3
20260509201529 31 360 11.3 24.1 0.00 0.03 0.03 59 1010.3
20260509201434 32 360 9.7 19.3 0.00 0.03 0.03 55 1010.3
20260509201336 32 360 9.7 19.3 0.00 0.03 0.03 55 1010.3
20260509201216 32 360 9.7 19.3 0.00 0.03 0.03 55 1010.3
20260509201137 32 360 9.7 19.3 0.00 0.03 0.03 55 1010.3
20260509201058 32 360 9.7 19.3 0.00 0.03 0.03 55 1010.3
20260509200957 32 17 9.7 19.3 0.00 0.03 0.03 55 1010.3
20260509200816 32 360 8.0 17.7 0.00 0.03 0.03 55 1010.3
20260509200721 32 344 8.0 17.7 0.00 0.03 0.03 55 1010.4
20260509200622 32 360 6.4 12.9 0.00 0.03 0.03 55 1010.4
20260509200523 32 360 6.4 12.9 0.00 0.03 0.03 54 1010.3
20260509200424 32 360 6.4 12.9 0.00 0.03 0.03 54 1010.4
20260509200344 32 360 4.8 12.9 0.00 0.03 0.03 54 1010.4
20260509200224 32 360 4.8 9.7 0.00 0.03 0.03 54 1010.3
20260509200123 32 360 4.8 8.0 0.00 0.03 0.03 53 1010.3
20260509200028 32 360 3.2 8.0 0.00 0.03 0.03 53 1010.3
20260509195928 32 360 3.2 6.4 0.00 0.03 0.03 53 1010.4
20260509195828 32 360 3.2 6.4 0.00 0.03 0.03 53 1010.4
20260509195730 32 360 3.2 6.4 0.00 0.03 0.03 53 1010.4
20260509195628 33 360 1.6 8.0 0.00 0.03 0.03 51 1010.4
20260509195528 33 360 3.2 8.0 0.00 0.03 0.03 51 1010.4
20260509195428 33 360 3.2 8.0 0.00 0.03 0.03 51 1010.4
20260509195333 33 360 3.2 8.0 0.00 0.03 0.03 52 1010.5
20260509195233 33 360 1.6 8.0 0.00 0.03 0.03 52 1010.4
20260509195134 33 360 1.6 8.0 0.00 0.03 0.03 52 1010.5
20260509195034 33 360 1.6 8.0 0.00 0.03 0.03 51 1010.4
20260509194954 33 360 1.6 8.0 0.00 0.03 0.03 52 1010.5
20260509194834 33 360 3.2 12.9 0.00 0.03 0.03 51 1010.4
20260509194719 33 360 3.2 12.9 0.00 0.03 0.03 53 1010.4
20260509194620 33 360 4.8 12.9 0.00 0.03 0.03 53 1010.4
20260509194521 33 360 4.8 12.9 0.00 0.03 0.03 52 1010.4
20260509194420 33 360 6.4 12.9 0.00 0.03 0.03 52 1010.4
20260509194341 33 360 6.4 12.9 0.00 0.03 0.03 52 1010.5
20260509194221 33 360 4.8 12.9 0.00 0.03 0.03 52 1010.4
20260509194122 33 360 4.8 12.9 0.00 0.03 0.03 52 1010.5
20260509194025 33 360 4.8 12.9 0.00 0.03 0.03 53 1010.4
20260509193927 33 360 3.2 12.9 0.00 0.03 0.03 53 1010.4
20260509193846 33 360 3.2 9.7 0.00 0.03 0.03 53 1010.5
20260509193746 33 360 4.8 9.7 0.00 0.03 0.03 53 1010.5
20260509193626 33 360 4.8 9.7 0.00 0.03 0.03 53 1010.5
20260509193525 33 360 3.2 9.7 0.00 0.03 0.03 53 1010.4
20260509193428 33 360 3.2 9.7 0.00 0.03 0.03 53 1010.4
20260509193327 33 360 3.2 9.7 0.00 0.03 0.03 53 1010.4
20260509193253 33 360 3.2 14.5 0.00 0.03 0.03 53 1010.4
20260509193132 33 360 3.2 14.5 0.00 0.03 0.03 53 1010.4
20260509193033 33 360 3.2 14.5 0.00 0.03 0.03 53 1010.5
20260509192934 33 360 4.8 14.5 0.00 0.03 0.03 53 1010.4
20260509192835 33 360 4.8 14.5 0.00 0.03 0.03 53 1010.5
20260509192737 33 360 4.8 14.5 0.00 0.03 0.03 53 1010.5
20260509192620 33 360 6.4 14.5 0.00 0.03 0.03 53 1010.6
20260509192520 32 360 6.4 14.5 0.00 0.03 0.03 53 1010.6
20260509192422 32 360 6.4 14.5 0.00 0.03 0.03 55 1010.6
20260509192322 32 360 4.8 12.9 0.00 0.03 0.03 54 1010.6
20260509192223 32 360 4.8 12.9 0.00 0.03 0.03 50 1010.6
20260509192144 33 360 4.8 12.9 0.00 0.03 0.03 50 1010.6
20260509192023 33 360 4.8 12.9 0.00 0.03 0.03 50 1010.7
20260509191946 33 360 4.8 12.9 0.00 0.03 0.03 50 1010.6
20260509191830 33 360 4.8 12.9 0.00 0.03 0.03 50 1010.6
20260509191750 33 360 3.2 12.9 0.00 0.03 0.03 50 1010.6
20260509191630 34 360 3.2 12.9 0.00 0.03 0.03 51 1010.6
20260509191531 34 360 3.2 12.9 0.00 0.03 0.03 51 1010.7
20260509191451 34 360 3.2 12.9 0.00 0.03 0.03 51 1010.7
20260509191331 34 360 3.2 12.9 0.00 0.03 0.03 51 1010.7
20260509191251 34 360 4.8 12.9 0.00 0.03 0.03 51 1010.6
20260509191130 34 360 4.8 12.9 0.00 0.03 0.03 51 1010.6
20260509191051 34 360 3.2 12.9 0.00 0.03 0.03 53 1010.7
20260509190934 34 360 4.8 12.9 0.00 0.03 0.03 53 1010.7
20260509190834 34 360 4.8 12.9 0.00 0.03 0.03 53 1010.7
20260509190755 33 360 4.8 12.9 0.00 0.03 0.03 53 1010.7
20260509190634 33 360 4.8 12.9 0.00 0.03 0.03 53 1010.7
20260509190535 33 360 4.8 12.9 0.00 0.03 0.03 54 1010.8
20260509190435 33 360 4.8 12.9 0.00 0.03 0.03 53 1010.7
20260509190320 33 360 4.8 12.9 0.00 0.03 0.03 53 1010.8
20260509190220 33 360 4.8 12.9 0.00 0.03 0.03 53 1010.8
20260509190120 33 360 4.8 12.9 0.00 0.03 0.03 52 1010.8
20260509190020 33 360 4.8 12.9 0.00 0.03 0.03 52 1010.8
20260509185941 33 360 3.2 12.9 0.00 0.03 0.03 52 1010.9
20260509185709 33 360 3.2 9.7 0.00 0.03 0.03 54 1010.9
20260509185511 33 360 3.2 9.7 0.00 0.03 0.03 54 1010.9
20260509185217 33 360 3.2 9.7 0.00 0.03 0.03 54 1010.9
20260509185117 33 360 3.2 9.7 0.00 0.03 0.03 54 1010.9
20260509185017 33 360 3.2 9.7 0.00 0.03 0.03 54 1011.0
20260509184918 33 360 3.2 9.7 0.00 0.03 0.03 54 1011.0
20260509184819 33 360 3.2 16.1 0.00 0.03 0.03 54 1011.0
20260509184739 33 360 3.2 16.1 0.00 0.03 0.03 54 1011.0
20260509184618 33 360 4.8 16.1 0.00 0.03 0.03 55 1011.1
20260509184523 33 360 4.8 16.1 0.00 0.03 0.03 55 1011.0
20260509184443 33 360 4.8 16.1 0.00 0.03 0.03 56 1011.1
20260509184322 33 360 4.8 16.1 0.00 0.03 0.03 56 1011.2
20260509184223 32 360 4.8 16.1 0.00 0.03 0.03 56 1011.2
20260509184144 32 360 4.8 16.1 0.00 0.03 0.03 56 1011.2
20260509184023 32 360 4.8 16.1 0.00 0.03 0.03 57 1011.2
20260509183923 32 360 4.8 16.1 0.00 0.03 0.03 57 1011.3
20260509183828 32 360 6.4 16.1 0.00 0.03 0.03 56 1011.3
20260509183728 32 360 6.4 16.1 0.00 0.03 0.03 57 1011.3
20260509183630 32 360 6.4 16.1 0.00 0.03 0.03 57 1011.2
20260509183550 32 360 6.4 16.1 0.00 0.03 0.03 57 1011.2
20260509183429 32 360 4.8 12.9 0.00 0.03 0.03 58 1011.3
20260509183330 32 360 3.2 12.9 0.00 0.03 0.03 58 1011.3
20260509183252 32 360 4.8 14.5 0.00 0.03 0.03 58 1011.3
20260509183152 31 360 4.8 14.5 0.00 0.03 0.03 58 1011.3
20260509183035 31 360 4.8 14.5 0.00 0.03 0.03 58 1011.3
20260509182916 31 360 4.8 14.5 0.00 0.03 0.03 58 1011.2
20260509182816 31 360 6.4 14.5 0.00 0.03 0.03 58 1011.3
20260509182737 31 360 6.4 14.5 0.00 0.03 0.03 58 1011.3
20260509182636 31 360 6.4 14.5 0.00 0.03 0.03 59 1011.3
20260509182516 31 360 6.4 14.5 0.00 0.03 0.03 59 1011.4
20260509182417 31 360 6.4 14.5 0.00 0.03 0.03 58 1011.4
20260509182321 31 360 4.8 9.7 0.00 0.03 0.03 58 1011.4
20260509182243 32 360 4.8 9.7 0.00 0.03 0.03 59 1011.5
20260509182143 32 360 4.8 9.7 0.00 0.03 0.03 58 1011.4
20260509182022 32 360 3.2 8.0 0.00 0.03 0.03 58 1011.5
20260509181923 32 360 3.2 8.0 0.00 0.03 0.03 55 1011.5
20260509181823 32 360 3.2 8.0 0.00 0.03 0.03 55 1011.5
20260509181723 33 360 3.2 8.0 0.00 0.03 0.03 55 1011.6
20260509181629 33 360 3.2 8.0 0.00 0.03 0.03 54 1011.6
20260509181549 33 360 3.2 8.0 0.00 0.03 0.03 54 1011.6
20260509181429 33 360 3.2 8.0 0.00 0.03 0.03 54 1011.6
20260509181350 33 360 3.2 8.0 0.00 0.03 0.03 55 1011.6
20260509181248 33 360 3.2 9.7 0.00 0.03 0.03 56 1011.7
20260509181127 33 360 3.2 9.7 0.00 0.03 0.03 56 1011.7
20260509181028 33 360 3.2 9.7 0.00 0.03 0.03 56 1011.7
20260509180928 33 360 3.2 9.7 0.00 0.03 0.03 56 1011.6
20260509180832 33 360 4.8 9.7 0.00 0.03 0.03 56 1011.6
20260509180732 33 360 4.8 9.7 0.00 0.03 0.03 56 1011.6
20260509180633 33 360 4.8 9.7 0.00 0.03 0.03 55 1011.6
20260509180554 33 360 4.8 9.7 0.00 0.03 0.03 56 1011.6
20260509180433 33 360 3.2 9.7 0.00 0.03 0.03 56 1011.5
20260509180333 33 360 3.2 9.7 0.00 0.03 0.03 57 1011.5
20260509180253 33 360 3.2 9.7 0.00 0.03 0.03 57 1011.6
20260509180133 33 360 3.2 9.7 0.00 0.03 0.03 57 1011.6
20260509180018 33 360 3.2 9.7 0.00 0.03 0.03 57 1011.6
20260509175938 33 360 3.2 9.7 0.00 0.03 0.03 57 1011.6
20260509175819 33 360 3.2 9.7 0.00 0.03 0.03 57 1011.7
20260509175719 33 360 3.2 9.7 0.00 0.03 0.03 57 1011.6
20260509175618 33 360 3.2 9.7 0.00 0.03 0.03 57 1011.7
20260509175539 32 360 3.2 9.7 0.00 0.03 0.03 59 1011.7
20260509175418 32 360 3.2 9.7 0.00 0.03 0.03 59 1011.7
20260509175322 32 360 3.2 9.7 0.00 0.03 0.03 59 1011.8
20260509175222 32 360 3.2 9.7 0.00 0.03 0.03 60 1011.8
20260509175123 32 360 3.2 9.7 0.00 0.03 0.03 60 1011.8
20260509175043 32 360 3.2 6.4 0.00 0.03 0.03 60 1011.9
20260509174924 32 360 3.2 6.4 0.00 0.03 0.03 61 1011.8
20260509174824 32 360 3.2 6.4 0.00 0.03 0.03 61 1011.8
20260509174725 32 360 3.2 9.7 0.00 0.03 0.03 61 1011.8
20260509174629 32 360 3.2 9.7 0.00 0.03 0.03 63 1011.8
20260509174528 32 360 3.2 9.7 0.00 0.03 0.03 63 1011.8
20260509174429 31 360 3.2 9.7 0.00 0.03 0.03 63 1011.8
20260509174330 31 360 3.2 12.9 0.00 0.03 0.03 63 1011.9
20260509174230 31 360 3.2 12.9 0.00 0.03 0.03 63 1011.9
20260509174131 31 360 3.2 12.9 0.00 0.03 0.03 63 1011.9
20260509174030 31 360 3.2 12.9 0.00 0.03 0.03 62 1012.0
20260509173951 31 360 4.8 12.9 0.00 0.03 0.03 62 1012.0
20260509173834 31 360 3.2 12.9 0.00 0.03 0.03 63 1012.1
20260509173735 31 360 3.2 12.9 0.00 0.03 0.03 63 1012.1
20260509173655 31 284 3.2 12.9 0.00 0.03 0.03 66 1012.1
20260509173533 31 360 4.8 12.9 0.00 0.03 0.03 66 1012.2
20260509173434 31 360 4.8 12.9 0.00 0.03 0.03 66 1012.3
20260509173334 30 360 4.8 12.9 0.00 0.03 0.03 66 1012.3
20260509173235 30 360 3.2 9.7 0.00 0.03 0.03 66 1012.3
20260509173119 30 360 3.2 12.9 0.00 0.03 0.03 66 1012.3
20260509173020 30 360 3.2 12.9 0.00 0.03 0.03 64 1012.3
20260509172921 30 360 3.2 14.5 0.00 0.03 0.03 64 1012.3
20260509172823 31 360 3.2 14.5 0.00 0.03 0.03 64 1012.3
20260509172723 31 360 3.2 14.5 0.00 0.03 0.03 64 1012.3
20260509172642 31 360 3.2 14.5 0.00 0.03 0.03 67 1012.3
20260509172522 31 360 3.2 14.5 0.00 0.03 0.03 67 1012.3
20260509172428 30 360 3.2 14.5 0.00 0.03 0.03 67 1012.3
20260509172328 30 360 3.2 17.7 0.00 0.03 0.03 67 1012.2
20260509172229 30 360 3.2 17.7 0.00 0.03 0.03 66 1012.2
20260509172129 30 360 4.8 17.7 0.00 0.03 0.03 67 1012.2
20260509172030 30 360 4.8 17.7 0.00 0.03 0.03 68 1012.1
20260509171930 30 360 4.8 17.7 0.00 0.03 0.03 68 1012.2
20260509171850 30 360 4.8 17.7 0.00 0.03 0.03 67 1012.2
20260509171735 30 360 4.8 17.7 0.00 0.03 0.03 65 1012.1
20260509171616 30 360 6.4 17.7 0.00 0.03 0.03 65 1012.2
20260509171516 30 360 6.4 17.7 0.00 0.03 0.03 65 1012.1
20260509171417 30 360 6.4 17.7 0.00 0.03 0.03 65 1012.0
20260509171318 30 360 4.8 16.1 0.00 0.03 0.03 68 1012.0
20260509171218 30 360 4.8 16.1 0.00 0.03 0.03 68 1012.0
20260509171122 30 360 4.8 16.1 0.00 0.03 0.03 68 1012.1
20260509171022 30 360 4.8 16.1 0.00 0.03 0.03 68 1012.0
20260509170923 30 360 4.8 16.1 0.00 0.03 0.03 68 1012.0
20260509170843 30 360 4.8 9.7 0.00 0.03 0.03 69 1012.1
20260509170723 30 360 4.8 9.7 0.00 0.03 0.03 69 1012.1
20260509170623 29 360 4.8 9.7 0.00 0.03 0.03 69 1012.1
20260509170524 29 360 4.8 9.7 0.00 0.03 0.03 69 1012.1
20260509170429 29 360 4.8 9.7 0.00 0.03 0.03 69 1012.1
20260509170329 29 360 4.8 9.7 0.00 0.03 0.03 69 1012.2
20260509170229 29 360 4.8 9.7 0.00 0.03 0.03 68 1012.2
20260509170150 29 360 3.2 9.7 0.00 0.03 0.03 68 1012.2
20260509170030 30 360 3.2 12.9 0.00 0.03 0.03 68 1012.1
20260509165931 30 360 3.2 12.9 0.00 0.03 0.03 68 1012.3
20260509165831 30 360 3.2 12.9 0.00 0.03 0.03 68 1012.2
20260509165757 30 360 3.2 12.9 0.00 0.03 0.03 68 1012.2
20260509165635 30 360 4.8 14.5 0.00 0.03 0.03 70 1012.3
20260509165535 30 360 4.8 14.5 0.00 0.03 0.03 69 1012.3
20260509165415 30 360 4.8 14.5 0.00 0.03 0.03 69 1012.3
20260509165316 30 360 4.8 14.5 0.00 0.03 0.03 69 1012.3
20260509165219 29 360 4.8 14.5 0.00 0.03 0.03 69 1012.3
20260509165119 29 360 4.8 14.5 0.00 0.03 0.03 69 1012.2
20260509165044 29 360 4.8 14.5 0.00 0.03 0.03 69 1012.4
20260509164924 30 360 4.8 14.5 0.00 0.03 0.03 66 1012.3
20260509164825 30 360 4.8 14.5 0.00 0.03 0.03 66 1012.3
20260509164725 30 360 4.8 14.5 0.00 0.03 0.03 66 1012.3
20260509164646 30 360 4.8 14.5 0.00 0.03 0.03 68 1012.2
20260509164545 30 360 3.2 14.5 0.00 0.03 0.03 68 1012.3
20260509164424 30 360 4.8 14.5 0.00 0.03 0.03 65 1012.1
20260509164324 31 360 3.2 12.9 0.00 0.03 0.03 65 1012.3
20260509164229 31 360 3.2 8.0 0.00 0.03 0.03 67 1012.3
20260509164128 31 360 3.2 8.0 0.00 0.03 0.03 67 1012.3
20260509164028 30 360 3.2 8.0 0.00 0.03 0.03 67 1012.3
20260509163928 30 360 3.2 8.0 0.00 0.03 0.03 67 1012.3
20260509163828 30 360 3.2 8.0 0.00 0.03 0.03 68 1012.3
20260509163729 30 360 3.2 8.0 0.00 0.03 0.03 67 1012.3
20260509163630 30 360 3.2 8.0 0.00 0.03 0.03 67 1012.3
20260509163534 30 360 1.6 8.0 0.00 0.03 0.03 67 1012.3
20260509163433 30 360 1.6 8.0 0.00 0.03 0.03 67 1012.5
20260509163353 30 360 1.6 8.0 0.00 0.03 0.03 67 1012.4
20260509163253 30 360 3.2 8.0 0.00 0.03 0.03 67 1012.4
20260509163152 30 360 3.2 8.0 0.00 0.03 0.03 67 1012.4
20260509163032 30 360 3.2 8.0 0.00 0.03 0.03 67 1012.3
20260509162932 30 360 3.2 8.0 0.00 0.03 0.03 69 1012.4
20260509162834 30 360 3.2 8.0 0.00 0.03 0.03 69 1012.4
20260509162737 30 360 3.2 8.0 0.00 0.03 0.03 71 1012.3
20260509162617 30 360 3.2 8.0 0.00 0.03 0.03 71 1012.3
20260509162537 29 360 3.2 8.0 0.00 0.03 0.03 70 1012.3
20260509162417 29 360 3.2 8.0 0.00 0.03 0.03 70 1012.3
20260509162318 29 360 1.6 8.0 0.00 0.03 0.03 70 1012.3
20260509162218 29 360 1.6 8.0 0.00 0.03 0.03 71 1012.3
20260509162118 29 360 3.2 8.0 0.00 0.03 0.03 69 1012.3
20260509162017 30 360 3.2 14.5 0.00 0.03 0.03 69 1012.4
20260509161922 30 360 3.2 14.5 0.00 0.03 0.03 70 1012.3
20260509161822 29 360 3.2 14.5 0.00 0.03 0.03 70 1012.3
20260509161723 29 360 4.8 14.5 0.00 0.03 0.03 72 1012.3
20260509161623 29 360 4.8 14.5 0.00 0.03 0.03 72 1012.2
20260509161524 29 360 4.8 14.5 0.00 0.03 0.03 72 1012.3
20260509161423 28 360 4.8 14.5 0.00 0.03 0.03 72 1012.3
20260509161328 28 360 4.8 14.5 0.00 0.03 0.03 72 1012.3
20260509161230 28 360 4.8 14.5 0.00 0.03 0.03 72 1012.3
20260509161131 28 360 3.2 14.5 0.00 0.03 0.03 72 1012.3
20260509161032 28 360 3.2 14.5 0.00 0.03 0.03 71 1012.2
20260509160951 28 360 3.2 14.5 0.00 0.03 0.03 74 1012.3
20260509160832 28 360 1.6 8.0 0.00 0.03 0.03 74 1012.3
20260509160733 28 360 1.6 8.0 0.00 0.03 0.03 76 1012.2
20260509160637 28 360 1.6 8.0 0.00 0.03 0.03 76 1012.3
20260509160537 28 360 1.6 9.7 0.00 0.03 0.03 76 1012.3
20260509160436 28 360 3.2 9.7 0.00 0.03 0.03 76 1012.3
20260509160335 27 360 3.2 9.7 0.00 0.03 0.03 76 1012.3
20260509160216 27 360 3.2 9.7 0.00 0.03 0.03 76 1012.3
20260509160116 27 360 3.2 9.7 0.00 0.03 0.03 76 1012.3
20260509160017 27 360 3.2 12.9 0.00 0.03 0.03 77 1012.3
20260509155922 27 360 3.2 12.9 0.00 0.03 0.03 78 1012.3
20260509155843 27 360 3.2 12.9 0.00 0.03 0.03 78 1012.4
20260509155742 27 360 3.2 12.9 0.00 0.03 0.03 78 1012.4
20260509155641 27 360 3.2 12.9 0.00 0.03 0.03 78 1012.3
20260509155521 27 360 3.2 12.9 0.00 0.03 0.03 79 1012.4
20260509155421 26 360 3.2 12.9 0.00 0.03 0.03 81 1012.4
20260509155320 26 360 3.2 12.9 0.00 0.03 0.03 81 1012.4
20260509155220 26 360 4.8 12.9 0.00 0.03 0.03 81 1012.4
20260509155121 26 360 4.8 12.9 0.00 0.03 0.03 82 1012.4
20260509155026 26 360 4.8 12.9 0.00 0.03 0.03 82 1012.4
20260509154926 26 360 4.8 12.9 0.00 0.03 0.03 82 1012.4
20260509154846 26 360 4.8 12.9 0.00 0.03 0.03 82 1012.4
20260509154726 26 360 6.4 12.9 0.00 0.03 0.03 82 1012.4
20260509154626 26 360 4.8 12.9 0.00 0.03 0.03 83 1012.4
20260509154526 26 360 4.8 12.9 0.00 0.03 0.03 83 1012.4
20260509154427 26 360 4.8 17.7 0.00 0.03 0.03 83 1012.4
20260509154331 26 360 4.8 17.7 0.00 0.03 0.03 84 1012.4
20260509154231 25 360 4.8 17.7 0.00 0.03 0.03 84 1012.4
20260509154132 25 360 6.4 17.7 0.00 0.03 0.03 84 1012.5
20260509154031 25 360 6.4 17.7 0.00 0.03 0.03 84 1012.4
20260509153932 25 360 6.4 17.7 0.00 0.03 0.03 85 1012.5
20260509153830 25 360 6.4 17.7 0.00 0.03 0.03 85 1012.4
20260509153733 25 360 6.4 17.7 0.00 0.03 0.03 85 1012.5
20260509153633 25 360 6.4 19.3 0.00 0.03 0.03 85 1012.5
20260509153534 25 360 6.4 19.3 0.00 0.03 0.03 87 1012.5
20260509153434 25 360 4.8 19.3 0.00 0.03 0.03 87 1012.5
20260509153333 25 360 6.4 19.3 0.00 0.03 0.03 87 1012.5
20260509153233 25 360 6.4 19.3 0.00 0.03 0.03 87 1012.5
20260509153134 25 360 6.4 19.3 0.00 0.03 0.03 87 1012.5
20260509153017 25 360 6.4 19.3 0.00 0.03 0.03 87 1012.5
20260509152938 25 360 4.8 19.3 0.00 0.03 0.03 89 1012.5
20260509152819 25 360 4.8 19.3 0.00 0.03 0.03 89 1012.5
20260509152718 25 360 6.4 19.3 0.00 0.03 0.03 90 1012.5
20260509152618 25 360 6.4 19.3 0.00 0.03 0.03 90 1012.5
20260509152519 24 360 6.4 19.3 0.00 0.03 0.03 90 1012.5
20260509152438 24 360 8.0 19.3 0.00 0.03 0.03 91 1012.5
20260509152319 24 360 9.7 19.3 0.00 0.03 0.03 90 1012.6
20260509152243 24 360 9.7 19.3 0.00 0.03 0.03 91 1012.6
20260509152123 23 360 9.7 17.7 0.00 0.03 0.03 91 1012.6
20260509152021 23 360 8.0 16.1 0.00 0.03 0.03 91 1012.6
20260509151921 23 360 8.0 16.1 0.00 0.03 0.03 91 1012.6
20260509151820 23 360 6.4 17.7 0.00 0.03 0.03 92 1012.6
20260509151719 23 360 6.4 17.7 0.00 0.03 0.03 92 1012.6
20260509151641 23 360 4.8 17.7 0.00 0.03 0.03 92 1012.5
20260509151520 23 360 6.4 17.7 0.00 0.03 0.03 92 1012.7
20260509151424 23 360 6.4 17.7 0.00 0.03 0.03 92 1012.6
20260509151345 23 360 6.4 17.7 0.00 0.03 0.03 92 1012.6
20260509151224 23 360 8.0 17.7 0.00 0.03 0.03 92 1012.5
20260509151125 23 360 9.7 17.7 0.00 0.03 0.03 92 1012.4
20260509151024 23 360 9.7 17.7 0.00 0.03 0.03 92 1012.4
20260509150926 23 360 9.7 17.7 0.00 0.03 0.03 92 1012.4
20260509150826 23 360 9.7 17.7 0.00 0.03 0.03 92 1012.4
20260509150726 23 360 6.4 16.1 0.00 0.03 0.03 93 1012.5
20260509150630 23 360 6.4 14.5 0.00 0.03 0.03 93 1012.5
20260509150532 23 360 4.8 9.7 0.00 0.03 0.03 93 1012.4
20260509150432 23 360 4.8 9.7 0.00 0.03 0.03 93 1012.5
20260509150333 23 360 4.8 9.7 0.00 0.03 0.03 93 1012.5
20260509150232 23 360 4.8 9.7 0.00 0.03 0.03 93 1012.5
20260509150133 23 360 3.2 14.5 0.00 0.03 0.03 93 1012.6
20260509150037 23 360 3.2 14.5 0.00 0.03 0.03 93 1012.6
20260509145917 23 360 3.2 14.5 0.00 0.03 0.03 93 1012.6
20260509145837 23 360 4.8 17.7 0.00 0.03 0.03 93 1012.6
20260509145737 23 360 4.8 17.7 0.00 0.03 0.03 93 1012.5
20260509145616 23 360 8.0 17.7 0.00 0.03 0.03 93 1012.4
20260509145516 22 360 8.0 17.7 0.00 0.03 0.03 93 1012.3
20260509145417 22 360 9.7 17.7 0.00 0.03 0.03 93 1012.3
20260509145337 22 360 9.7 20.9 0.00 0.03 0.03 93 1012.3
20260509145221 22 360 9.7 22.5 0.00 0.03 0.03 93 1012.3
20260509145122 22 360 9.7 22.5 0.00 0.03 0.03 93 1012.3
20260509145024 22 360 9.7 22.5 0.00 0.03 0.03 93 1012.3
20260509144925 22 360 11.3 22.5 0.00 0.03 0.03 93 1012.3
20260509144824 22 360 11.3 22.5 0.00 0.03 0.03 93 1012.3
20260509144725 22 360 12.9 22.5 0.00 0.03 0.03 93 1012.2
20260509144629 22 360 12.9 22.5 0.00 0.03 0.03 93 1012.2
20260509144531 22 360 12.9 22.5 0.00 0.03 0.03 93 1012.1
20260509144431 22 360 12.9 22.5 0.00 0.03 0.03 93 1012.1
20260509144331 22 360 11.3 20.9 0.00 0.03 0.03 93 1012.2
20260509144232 22 360 9.7 20.9 0.00 0.03 0.03 93 1012.1
20260509144131 22 360 8.0 20.9 0.00 0.03 0.03 93 1012.0
20260509144032 22 360 8.0 20.9 0.00 0.03 0.03 93 1012.1
20260509143936 22 360 8.0 20.9 0.00 0.03 0.03 93 1012.0
20260509143836 22 360 9.7 20.9 0.00 0.03 0.03 93 1012.1
20260509143716 22 360 9.7 20.9 0.00 0.03 0.03 93 1012.0
20260509143617 22 360 11.3 20.9 0.00 0.03 0.03 93 1012.1
20260509143518 22 360 11.3 20.9 0.00 0.03 0.03 93 1012.1
20260509143418 22 360 12.9 20.9 0.00 0.03 0.03 93 1012.1
20260509143320 22 360 11.3 20.9 0.00 0.03 0.03 93 1012.0
20260509143224 22 360 12.9 20.9 0.00 0.03 0.03 94 1011.9
20260509143125 22 360 9.7 19.3 0.00 0.03 0.03 94 1011.9
20260509143025 22 360 8.0 19.3 0.00 0.03 0.03 94 1011.9
20260509142926 22 360 8.0 20.9 0.00 0.03 0.03 94 1011.8
20260509142826 22 360 8.0 20.9 0.00 0.03 0.03 94 1011.8
20260509142726 22 360 9.7 25.7 0.00 0.03 0.03 94 1011.8
20260509142630 22 360 11.3 25.7 0.00 0.03 0.03 94 1011.8
20260509142531 22 360 12.9 25.7 0.00 0.03 0.03 94 1011.9
20260509142431 22 360 12.9 25.7 0.00 0.03 0.03 94 1011.9
20260509142331 22 360 12.9 25.7 0.00 0.03 0.03 94 1011.9
20260509142230 22 360 14.5 25.7 0.00 0.03 0.03 94 1011.9
20260509142131 22 360 12.9 25.7 0.00 0.03 0.03 94 1012.1
20260509142031 22 360 12.9 25.7 0.00 0.03 0.03 94 1012.0
20260509141915 22 360 11.3 25.7 0.00 0.03 0.03 94 1012.0
20260509141835 22 360 12.9 24.1 0.00 0.03 0.03 94 1012.0
20260509141716 22 360 12.9 24.1 0.00 0.03 0.03 94 1011.9
20260509141617 22 360 14.5 24.1 0.00 0.03 0.03 94 1011.8
20260509141537 22 360 12.9 24.1 0.00 0.03 0.03 94 1011.8
20260509141437 22 360 11.3 24.1 0.00 0.03 0.03 94 1011.7
20260509141316 22 360 11.3 24.1 0.00 0.03 0.03 94 1011.7
20260509141222 22 360 11.3 24.1 0.00 0.03 0.03 94 1011.7
20260509141122 22 360 11.3 19.3 0.00 0.03 0.03 94 1011.6
20260509141022 22 360 12.9 19.3 0.00 0.03 0.03 94 1011.6
20260509140923 22 360 14.5 19.3 0.00 0.03 0.03 94 1011.7
20260509140823 22 360 14.5 19.3 0.00 0.03 0.03 94 1011.7
20260509140723 22 360 14.5 17.7 0.00 0.03 0.03 94 1011.7
20260509140644 22 360 12.9 17.7 0.00 0.03 0.03 94 1011.7
20260509140528 22 360 11.3 17.7 0.00 0.03 0.03 94 1011.7
20260509140428 22 360 9.7 16.1 0.00 0.03 0.03 94 1011.6
20260509140328 22 360 9.7 16.1 0.00 0.03 0.03 94 1011.6
20260509140229 22 360 6.4 14.5 0.00 0.03 0.03 94 1011.6
20260509140149 22 360 6.4 14.5 0.00 0.03 0.03 94 1011.6
20260509140030 22 360 6.4 14.5 0.00 0.03 0.03 94 1011.6
20260509135950 22 360 4.8 14.5 0.00 0.03 0.03 95 1011.6
20260509135828 22 360 4.8 12.9 0.00 0.03 0.03 94 1011.6
20260509135732 22 360 4.8 9.7 0.00 0.03 0.03 94 1011.6
20260509135632 22 360 4.8 9.7 0.00 0.03 0.03 94 1011.6
20260509135532 22 360 4.8 9.7 0.00 0.03 0.03 94 1011.5
20260509135432 22 360 4.8 8.0 0.00 0.03 0.03 94 1011.6
20260509135333 22 360 3.2 8.0 0.00 0.03 0.03 94 1011.6
20260509135233 22 360 3.2 8.0 0.00 0.03 0.03 94 1011.6
20260509135134 22 360 3.2 8.0 0.00 0.03 0.03 94 1011.7
20260509135018 22 360 3.2 4.8 0.00 0.03 0.03 94 1011.8
20260509134918 22 360 1.6 4.8 0.00 0.03 0.03 94 1011.8
20260509134818 22 360 1.6 4.8 0.00 0.03 0.03 94 1011.9
20260509134718 22 360 1.6 4.8 0.00 0.03 0.03 94 1011.9
20260509134618 22 360 1.6 4.8 0.00 0.03 0.03 94 1012.0
20260509134538 22 360 0.0 3.2 0.00 0.03 0.03 94 1012.0
20260509134418 22 360 0.0 8.0 0.00 0.03 0.03 94 1012.0
20260509134338 22 360 0.0 8.0 0.00 0.03 0.03 94 1012.1
20260509134222 22 360 0.0 8.0 0.00 0.03 0.03 94 1012.1
20260509134124 22 360 0.0 16.1 0.00 0.03 0.03 94 1012.1
20260509134045 22 360 1.6 16.1 0.00 0.03 0.03 94 1012.1
20260509133923 22 360 1.6 16.1 0.00 0.03 0.03 94 1012.0
20260509133824 22 360 3.2 16.1 0.00 0.03 0.03 94 1012.1
20260509133744 22 360 3.2 16.1 0.00 0.03 0.03 94 1012.1
20260509133624 22 360 3.2 16.1 0.00 0.03 0.03 94 1012.1
20260509133528 22 360 4.8 16.1 0.00 0.03 0.03 94 1012.1
20260509133428 22 360 6.4 16.1 0.00 0.03 0.03 94 1012.1
20260509133349 22 360 8.0 16.1 0.00 0.03 0.03 94 1012.1
20260509133229 22 360 8.0 16.1 0.00 0.03 0.03 94 1012.1
20260509133128 22 360 8.0 16.1 0.00 0.03 0.03 94 1012.1
20260509133027 22 360 6.4 12.9 0.00 0.03 0.03 94 1012.1
20260509132927 22 360 4.8 12.9 0.00 0.03 0.03 94 1012.1
20260509132828 22 360 4.8 9.7 0.00 0.03 0.03 94 1012.0
20260509132730 22 360 6.4 9.7 0.00 0.03 0.03 94 1012.1
20260509132633 22 360 6.4 9.7 0.00 0.03 0.03 94 1012.1
20260509132534 22 360 4.8 9.7 0.00 0.03 0.03 94 1012.1
20260509132434 22 360 4.8 9.7 0.00 0.03 0.03 94 1012.2
20260509132335 22 360 3.2 9.7 0.00 0.03 0.03 94 1012.2
20260509132236 22 360 3.2 9.7 0.00 0.03 0.03 94 1012.2
20260509132156 22 360 3.2 9.7 0.00 0.03 0.03 94 1012.3
20260509132056 22 360 4.8 9.7 0.00 0.03 0.03 94 1012.3
20260509131919 22 360 6.4 9.7 0.00 0.03 0.03 94 1012.4
20260509131820 22 360 6.4 9.7 0.00 0.03 0.03 94 1012.4
20260509131721 22 360 6.4 9.7 0.00 0.03 0.03 94 1012.4
20260509131621 22 360 4.8 9.7 0.00 0.03 0.03 94 1012.5
20260509131542 22 360 4.8 9.7 0.00 0.03 0.03 94 1012.4
20260509131421 22 360 3.2 9.7 0.00 0.03 0.03 94 1012.4
20260509131322 22 360 4.8 9.7 0.00 0.03 0.03 94 1012.5
20260509131226 22 360 4.8 9.7 0.00 0.03 0.03 94 1012.4
20260509131127 22 336 4.8 9.7 0.00 0.03 0.03 94 1012.4
20260509131048 22 360 4.8 9.7 0.00 0.03 0.03 94 1012.4
20260509130927 22 18 6.4 9.7 0.00 0.03 0.03 94 1012.4
20260509130827 22 360 6.4 9.7 0.00 0.03 0.03 94 1012.2
20260509130747 22 360 6.4 9.7 0.00 0.03 0.03 94 1012.1
20260509130627 22 360 6.4 12.9 0.00 0.03 0.03 94 1012.1
20260509130533 22 360 4.8 12.9 0.00 0.03 0.03 94 1012.1
20260509130433 22 360 4.8 12.9 0.00 0.03 0.03 94 1012.0
20260509130333 22 347 4.8 12.9 0.00 0.03 0.03 94 1012.0
20260509130233 22 303 4.8 12.9 0.00 0.03 0.03 94 1012.0
20260509130134 22 360 6.4 12.9 0.00 0.03 0.03 94 1012.0
20260509130035 22 360 6.4 12.9 0.00 0.03 0.03 94 1011.9
20260509125934 22 360 6.4 12.9 0.00 0.03 0.03 94 1012.0
20260509125820 22 360 8.0 12.9 0.00 0.03 0.03 94 1012.0
20260509125719 22 360 6.4 12.9 0.00 0.03 0.03 94 1012.0
20260509125620 22 360 6.4 11.3 0.00 0.03 0.03 94 1012.0
20260509125541 22 360 6.4 11.3 0.00 0.03 0.03 94 1012.0
20260509125440 22 360 4.8 8.0 0.00 0.03 0.03 94 1011.9
20260509125319 22 360 4.8 6.4 0.00 0.03 0.03 94 1011.9
20260509125220 22 360 3.2 6.4 0.00 0.03 0.03 94 1011.9
20260509125125 22 360 1.6 4.8 0.00 0.03 0.03 94 1011.9
20260509125025 22 360 1.6 4.8 0.00 0.03 0.03 94 1011.9
20260509124925 22 360 0.0 3.2 0.00 0.03 0.03 94 1011.8
20260509124825 22 360 0.0 3.2 0.00 0.03 0.03 94 1011.8
20260509124726 22 360 0.0 3.2 0.00 0.03 0.03 94 1011.8
20260509124627 22 360 0.0 3.2 0.00 0.03 0.03 94 1011.8
20260509124548 22 360 0.0 3.2 0.00 0.03 0.03 94 1011.8
20260509124431 22 360 1.6 3.2 0.00 0.03 0.03 94 1011.8
20260509124351 22 360 1.6 3.2 0.00 0.03 0.03 94 1011.8
20260509124231 22 360 1.6 3.2 0.00 0.03 0.03 94 1011.8
20260509124132 22 360 0.0 3.2 0.00 0.03 0.03 94 1011.9
20260509124032 22 360 0.0 3.2 0.00 0.03 0.03 94 1011.8
20260509123933 22 360 1.6 3.2 0.00 0.03 0.03 94 1011.9
20260509123834 22 360 1.6 3.2 0.00 0.03 0.03 94 1011.9
20260509123718 22 360 1.6 3.2 0.00 0.03 0.03 94 1011.9
20260509123619 22 360 1.6 3.2 0.00 0.03 0.03 94 1011.8
20260509123540 22 360 1.6 3.2 0.00 0.03 0.03 94 1011.8
20260509123419 22 360 1.6 3.2 0.00 0.03 0.03 94 1011.8
20260509123320 22 360 1.6 3.2 0.00 0.03 0.03 94 1011.8
20260509123221 22 360 1.6 6.4 0.00 0.03 0.03 94 1011.7
20260509123123 22 360 0.0 6.4 0.00 0.03 0.03 94 1011.8
20260509123027 22 360 0.0 6.4 0.00 0.03 0.03 94 1011.8
20260509122928 22 360 1.6 6.4 0.00 0.03 0.03 94 1011.8
20260509122828 22 360 1.6 6.4 0.00 0.03 0.03 94 1011.8
20260509122729 22 360 1.6 6.4 0.00 0.03 0.03 94 1011.8
20260509122629 22 360 3.2 6.4 0.00 0.03 0.03 94 1011.7
20260509122549 22 360 3.2 6.4 0.00 0.03 0.03 94 1011.7
20260509122428 22 360 3.2 6.4 0.00 0.03 0.03 94 1011.7
20260509122333 22 360 3.2 6.4 0.00 0.03 0.03 94 1011.6
20260509122234 22 360 3.2 6.4 0.00 0.03 0.03 94 1011.6
20260509122134 22 360 1.6 6.4 0.00 0.03 0.03 94 1011.6
20260509122055 22 360 1.6 6.4 0.00 0.03 0.03 94 1011.7
20260509121934 22 360 1.6 4.8 0.00 0.03 0.03 94 1011.7
20260509121835 22 360 1.6 4.8 0.00 0.03 0.03 94 1011.8
20260509121719 22 360 1.6 4.8 0.00 0.03 0.03 94 1011.9
20260509121640 22 360 1.6 4.8 0.00 0.03 0.03 94 1011.9
20260509121519 22 360 0.0 3.2 0.00 0.03 0.03 94 1012.0
20260509121419 22 360 0.0 0.0 0.00 0.03 0.03 94 1012.0
20260509121320 22 360 0.0 3.2 0.00 0.03 0.03 94 1011.9
20260509121221 22 360 0.0 3.2 0.00 0.03 0.03 94 1011.9
20260509121121 22 360 0.0 3.2 0.00 0.03 0.03 94 1012.0
20260509121025 22 360 0.0 3.2 0.00 0.03 0.03 94 1012.0
20260509120926 22 360 0.0 3.2 0.00 0.03 0.03 94 1012.0
20260509120827 22 360 0.0 3.2 0.00 0.03 0.03 94 1011.9
20260509120728 22 360 0.0 3.2 0.00 0.03 0.03 94 1011.9
20260509120648 22 360 0.0 3.2 0.00 0.03 0.03 94 1011.9
20260509120528 22 360 0.0 3.2 0.00 0.03 0.03 94 1011.9
20260509120427 22 360 1.6 3.2 0.00 0.03 0.03 94 1011.8
20260509120347 22 360 1.6 3.2 0.00 0.03 0.03 94 1011.8
20260509120251 22 360 1.6 3.2 0.00 0.03 0.03 94 1011.8
20260509120131 22 360 1.6 3.2 0.00 0.03 0.03 94 1011.7
20260509120028 22 360 0.0 3.2 0.00 0.03 0.03 94 1011.9
20260509115929 22 360 0.0 4.8 0.00 0.03 0.03 94 1011.8
20260509115850 22 360 0.0 4.8 0.00 0.03 0.03 94 1011.8
20260509115730 22 360 0.0 4.8 0.00 0.03 0.03 94 1011.9
20260509115630 22 360 0.0 4.8 0.00 0.03 0.03 94 1011.8
20260509115535 22 360 1.6 4.8 0.00 0.03 0.03 94 1011.9
20260509115455 22 360 1.6 4.8 0.00 0.03 0.03 94 1011.9
20260509115334 22 360 1.6 4.8 0.00 0.03 0.03 94 1011.8
20260509115235 22 360 1.6 4.8 0.00 0.03 0.03 94 1011.9
20260509115155 22 360 3.2 4.8 0.00 0.03 0.03 94 1011.9
20260509115035 22 360 3.2 4.8 0.00 0.03 0.03 94 1011.9
20260509114955 22 360 3.2 9.7 0.00 0.03 0.03 94 1011.8
20260509114835 22 316 1.6 9.7 0.00 0.03 0.03 94 1011.8
20260509114719 22 360 1.6 9.7 0.00 0.03 0.03 94 1011.9
20260509114619 22 360 1.6 9.7 0.00 0.03 0.03 94 1011.8
20260509114520 22 315 1.6 12.9 0.00 0.03 0.03 94 1011.9
20260509114421 22 360 1.6 14.5 0.00 0.03 0.03 94 1011.9
20260509114322 22 360 3.2 14.5 0.00 0.03 0.03 94 1011.9
20260509114243 22 360 3.2 14.5 0.00 0.03 0.03 94 1011.9
20260509114116 22 360 4.8 14.5 0.00 0.03 0.03 94 1012.0
20260509114020 22 360 6.4 14.5 0.00 0.03 0.03 94 1012.0
20260509113920 22 360 8.0 14.5 0.00 0.03 0.03 94 1012.2
20260509113821 22 360 8.0 14.5 0.00 0.03 0.03 94 1012.2
20260509113723 22 360 8.0 14.5 0.00 0.03 0.03 94 1012.2
20260509113624 22 360 8.0 14.5 0.00 0.03 0.03 94 1012.3
20260509113545 22 360 6.4 12.9 0.00 0.03 0.03 94 1012.3
20260509113424 22 360 4.8 9.7 0.00 0.03 0.03 94 1012.4
20260509113348 22 360 4.8 9.7 0.00 0.03 0.03 94 1012.4
20260509113228 22 360 4.8 8.0 0.00 0.03 0.03 93 1012.4
20260509113147 22 360 4.8 8.0 0.00 0.03 0.03 94 1012.4
20260509113027 22 360 4.8 6.4 0.00 0.03 0.03 93 1012.5
20260509112928 22 360 4.8 6.4 0.00 0.03 0.03 93 1012.6
20260509112828 22 360 4.8 6.4 0.00 0.03 0.03 94 1012.5
20260509112729 22 360 4.8 6.4 0.00 0.03 0.03 94 1012.5
20260509112646 22 360 3.2 6.4 0.00 0.03 0.03 93 1012.6
20260509112526 22 360 3.2 6.4 0.00 0.03 0.03 93 1012.6
20260509112430 22 360 1.6 4.8 0.00 0.03 0.03 93 1012.6
20260509112331 22 360 1.6 4.8 0.00 0.03 0.03 93 1012.6
20260509112252 22 360 0.0 4.8 0.00 0.03 0.03 93 1012.6
20260509112130 22 315 0.0 4.8 0.00 0.03 0.03 93 1012.6
20260509112031 22 315 0.0 4.8 0.00 0.03 0.03 93 1012.5
20260509111951 22 360 0.0 4.8 0.00 0.03 0.03 93 1012.6
20260509111830 22 360 0.0 4.8 0.00 0.03 0.03 93 1012.5
20260509111730 22 360 1.6 4.8 0.00 0.03 0.03 93 1012.6
20260509111634 22 360 1.6 4.8 0.00 0.03 0.03 93 1012.5
20260509111535 22 360 1.6 8.0 0.00 0.03 0.03 93 1012.5
20260509111435 22 360 1.6 8.0 0.00 0.03 0.03 93 1012.5
20260509111336 22 360 1.6 8.0 0.00 0.03 0.03 93 1012.5
20260509111218 22 360 1.6 8.0 0.00 0.03 0.03 93 1012.6
20260509111119 22 360 3.2 8.0 0.00 0.03 0.03 93 1012.7
20260509111023 22 360 3.2 8.0 0.00 0.03 0.03 93 1012.6
20260509110924 22 360 3.2 9.7 0.00 0.03 0.03 93 1012.7
20260509110824 22 360 3.2 9.7 0.00 0.03 0.03 93 1012.7
20260509110745 22 360 3.2 9.7 0.00 0.03 0.03 93 1012.7
20260509110625 22 360 1.6 9.7 0.00 0.03 0.03 93 1012.7
20260509110525 22 360 3.2 9.7 0.00 0.03 0.03 93 1012.6
20260509110446 22 360 3.2 9.7 0.00 0.03 0.03 93 1012.7
20260509110330 22 360 3.2 9.7 0.00 0.03 0.03 93 1012.7
20260509110230 22 360 3.2 9.7 0.00 0.03 0.03 93 1012.7
20260509110130 22 360 4.8 9.7 0.00 0.03 0.03 93 1012.8
20260509110032 22 360 4.8 9.7 0.00 0.03 0.03 93 1012.8
20260509105931 22 360 4.8 8.0 0.00 0.03 0.03 93 1012.8
20260509105851 22 360 4.8 8.0 0.00 0.03 0.03 93 1012.8
20260509105750 22 360 4.8 8.0 0.00 0.03 0.03 93 1012.8
20260509105629 22 360 4.8 8.0 0.00 0.03 0.03 93 1012.8
20260509105549 22 360 4.8 9.7 0.00 0.03 0.03 93 1012.9
20260509105452 22 360 4.8 9.7 0.00 0.03 0.03 93 1012.9
20260509105352 22 346 4.8 9.7 0.00 0.03 0.03 93 1012.9
20260509105231 22 360 3.2 9.7 0.00 0.03 0.03 93 1012.9
20260509105132 22 360 4.8 9.7 0.00 0.03 0.03 93 1012.8
20260509105032 22 360 4.8 9.7 0.00 0.03 0.03 93 1012.8
20260509104933 22 360 4.8 9.7 0.00 0.03 0.03 93 1012.8
20260509104833 22 360 4.8 9.7 0.00 0.03 0.03 93 1012.8
20260509104718 22 360 4.8 9.7 0.00 0.03 0.03 93 1012.7
20260509104618 22 360 4.8 8.0 0.00 0.03 0.03 93 1012.7
20260509104518 22 360 4.8 8.0 0.00 0.03 0.03 93 1012.8
20260509104419 22 360 4.8 8.0 0.00 0.03 0.03 93 1012.8
20260509104319 22 22 4.8 8.0 0.00 0.03 0.03 93 1012.8
20260509104219 22 360 6.4 8.0 0.00 0.03 0.03 93 1012.9
20260509104123 22 360 4.8 8.0 0.00 0.03 0.03 93 1012.9
20260509104024 22 360 4.8 8.0 0.00 0.03 0.03 93 1012.9
20260509103924 22 11 4.8 8.0 0.00 0.03 0.03 93 1013.0
20260509103846 22 360 4.8 8.0 0.00 0.03 0.03 93 1012.9
20260509103725 22 360 4.8 8.0 0.00 0.03 0.03 93 1012.9
20260509103624 22 360 4.8 8.0 0.00 0.03 0.03 93 1012.9
20260509103524 22 360 6.4 8.0 0.00 0.03 0.03 93 1012.8
20260509103425 22 360 6.4 8.0 0.00 0.03 0.03 93 1012.8
20260509103330 22 360 6.4 8.0 0.00 0.03 0.03 93 1012.8
20260509103249 22 360 4.8 8.0 0.00 0.03 0.03 93 1012.8
20260509103128 22 360 4.8 8.0 0.00 0.03 0.03 93 1012.8
20260509103028 22 360 4.8 8.0 0.00 0.03 0.03 93 1012.8
20260509102929 22 360 4.8 6.4 0.00 0.03 0.03 93 1012.8
20260509102830 22 360 4.8 6.4 0.00 0.03 0.03 93 1012.8
20260509102730 22 360 4.8 8.0 0.00 0.03 0.03 93 1012.8
20260509102650 22 360 4.8 8.0 0.00 0.03 0.03 93 1012.8
20260509102555 22 360 4.8 8.0 0.00 0.03 0.03 93 1012.8
20260509102434 22 360 4.8 8.0 0.00 0.03 0.03 93 1012.7
20260509102334 22 360 4.8 8.0 0.00 0.03 0.03 93 1012.7
20260509102233 22 360 4.8 8.0 0.00 0.03 0.03 93 1012.7
20260509102133 22 360 4.8 8.0 0.00 0.03 0.03 93 1012.7
20260509102054 22 360 4.8 8.0 0.00 0.03 0.03 93 1012.6
20260509101934 22 360 4.8 8.0 0.00 0.03 0.03 93 1012.6
20260509101818 22 360 4.8 6.4 0.00 0.03 0.03 93 1012.6
20260509101719 22 360 4.8 6.4 0.00 0.03 0.03 93 1012.5
20260509101619 22 360 3.2 6.4 0.00 0.03 0.03 93 1012.5
20260509101520 22 360 3.2 4.8 0.00 0.03 0.03 93 1012.5
20260509101420 22 360 1.6 4.8 0.00 0.03 0.03 93 1012.4
20260509101320 22 360 1.6 4.8 0.00 0.03 0.03 93 1012.5
20260509101220 22 360 0.0 4.8 0.00 0.03 0.03 93 1012.3
20260509101125 22 360 0.0 4.8 0.00 0.03 0.03 93 1012.2
20260509101025 22 360 1.6 4.8 0.00 0.03 0.03 93 1012.3
20260509100926 22 360 1.6 4.8 0.00 0.03 0.03 93 1012.3
20260509100826 22 360 1.6 4.8 0.00 0.03 0.03 93 1012.1
20260509100725 22 360 3.2 4.8 0.00 0.03 0.03 93 1011.9
20260509100626 22 360 3.2 4.8 0.00 0.03 0.03 93 1011.9
20260509100531 22 360 3.2 6.4 0.00 0.03 0.03 93 1011.9
20260509100451 22 360 3.2 6.4 0.00 0.03 0.03 93 1011.8
20260509100331 22 130 3.2 6.4 0.00 0.03 0.03 93 1011.8
20260509100230 22 360 3.2 6.4 0.00 0.03 0.03 92 1011.7
20260509100151 22 360 3.2 6.4 0.00 0.03 0.03 92 1011.7
20260509100028 22 360 3.2 6.4 0.00 0.03 0.03 92 1011.6
20260509095947 22 360 3.2 6.4 0.00 0.03 0.03 92 1011.6
20260509095826 22 360 3.2 6.4 0.00 0.03 0.03 92 1011.6
20260509095729 22 360 3.2 6.4 0.00 0.03 0.03 92 1011.5
20260509095652 22 360 3.2 6.4 0.00 0.03 0.03 93 1011.5
20260509095531 22 360 3.2 6.4 0.00 0.03 0.03 93 1011.5
20260509095432 22 360 3.2 6.4 0.00 0.03 0.03 93 1011.6
20260509095334 22 360 3.2 6.4 0.00 0.03 0.03 93 1011.6